GEFSNE_prec_meanprecacc_270.txt.gz
Total_Precipitation_Accumulation
1.84 1.80 1.83 1.75 1.70 1.71 1.82 2.02 2.23 2.03 1.52 1.14 1.05 1.01 1.02 1.03 1.09 1.01 0.91 1.03 1.04 1.05 1.11 1.15 1.14 1.15 1.18 1.25 1.38 1.48 1.56 1.65 1.74 1.81 1.86 1.94 2.10 2.35
1.70 1.68 1.65 1.63 1.66 1.68 1.72 1.81 1.99 2.09 1.77 1.22 1.03 1.00 1.06 1.06 1.12 1.00 0.92 1.05 1.00 0.98 0.99 1.02 1.05 1.05 1.05 1.08 1.14 1.22 1.28 1.33 1.43 1.59 1.75 1.86 1.95 2.09
1.59 1.58 1.51 1.45 1.50 1.52 1.54 1.59 1.67 1.80 1.75 1.28 1.06 1.03 1.06 1.02 1.01 0.94 0.86 0.84 0.81 0.89 0.87 0.89 0.94 0.97 0.98 1.00 1.06 1.13 1.16 1.19 1.28 1.40 1.55 1.68 1.80 1.84
1.43 1.46 1.43 1.37 1.37 1.40 1.44 1.41 1.40 1.43 1.52 1.37 1.07 0.96 0.93 0.88 0.87 0.87 0.82 0.78 0.71 0.80 0.82 0.85 0.92 0.95 0.93 0.92 0.94 1.02 1.09 1.14 1.18 1.23 1.32 1.40 1.52 1.67
1.29 1.35 1.37 1.38 1.38 1.36 1.35 1.33 1.31 1.32 1.40 1.44 1.17 0.96 0.89 0.85 0.86 0.83 0.80 0.79 0.72 0.77 0.81 0.81 0.84 0.88 0.90 0.90 0.91 0.92 0.96 1.02 1.10 1.15 1.21 1.29 1.37 1.49
1.21 1.29 1.32 1.31 1.25 1.21 1.24 1.21 1.25 1.30 1.33 1.40 1.31 1.11 0.96 0.85 0.90 0.91 0.89 0.81 0.78 0.78 0.87 0.86 0.87 0.88 0.89 0.88 0.84 0.83 0.85 0.93 1.07 1.22 1.34 1.40 1.41 1.43
1.26 1.24 1.27 1.32 1.27 1.21 1.18 1.18 1.20 1.29 1.38 1.45 1.37 1.18 1.02 0.92 0.85 0.81 0.88 0.87 0.85 0.78 0.83 0.82 0.84 0.87 0.89 0.94 0.96 0.96 0.99 1.07 1.21 1.35 1.47 1.54 1.55 1.57
1.23 1.14 1.14 1.21 1.22 1.24 1.23 1.20 1.26 1.36 1.46 1.51 1.42 1.22 0.97 0.87 0.88 1.00 1.12 1.25 1.17 0.82 0.85 0.94 1.00 1.08 1.04 1.02 1.13 1.16 1.18 1.24 1.32 1.39 1.47 1.54 1.57 1.58
1.13 1.07 1.01 0.99 1.07 1.00 1.07 1.14 1.16 1.27 1.36 1.37 1.32 1.08 0.94 0.89 1.07 1.24 1.27 1.30 1.14 0.92 1.07 1.22 1.13 1.11 1.03 1.07 1.24 1.19 1.17 1.19 1.23 1.29 1.34 1.39 1.43 1.46
1.03 0.97 0.94 0.91 0.93 1.01 1.08 1.15 1.06 1.00 1.01 0.98 0.97 0.92 0.92 0.98 1.21 1.46 1.57 1.60 1.37 1.15 1.14 1.27 1.09 0.99 0.94 0.99 1.15 1.13 1.08 1.11 1.17 1.25 1.29 1.33 1.35 1.35
1.03 0.99 0.97 0.91 1.01 1.17 1.21 1.22 1.07 0.91 0.92 0.98 1.05 1.05 1.09 1.14 1.22 1.49 1.76 1.92 1.66 1.19 1.00 1.07 1.01 0.99 0.97 0.96 1.05 1.17 1.12 1.10 1.15 1.20 1.21 1.24 1.31 1.36
1.05 1.02 1.10 1.05 1.13 1.24 1.16 1.17 1.09 0.91 0.85 0.85 0.88 0.90 0.85 0.88 1.07 1.22 1.65 2.13 1.87 1.42 0.97 1.04 1.09 1.24 1.46 1.05 0.93 1.02 1.08 1.10 1.11 1.14 1.17 1.22 1.27 1.26
1.11 1.04 1.03 1.21 1.28 1.31 1.20 1.01 1.02 1.08 0.98 0.88 0.85 0.85 0.83 0.83 0.87 0.93 1.21 1.91 2.27 1.77 1.07 1.41 1.64 1.39 1.57 1.21 0.95 0.98 1.04 1.12 1.18 1.19 1.23 1.27 1.29 1.35
1.04 0.97 1.01 1.22 1.23 1.19 1.10 1.11 1.20 1.13 0.95 0.95 0.94 0.91 0.88 0.88 0.90 0.94 1.01 1.20 1.56 1.73 1.37 1.66 2.10 1.69 1.78 1.48 1.08 1.01 1.08 1.23 1.39 1.38 1.32 1.42 1.40 1.42
1.02 1.09 1.14 1.16 1.10 1.05 1.09 1.11 1.07 1.00 1.03 1.11 1.05 0.94 0.90 0.94 0.99 1.05 1.07 1.09 1.18 1.24 1.25 1.34 1.66 1.70 1.87 1.81 1.37 1.15 1.25 1.33 1.49 1.69 1.66 1.53 1.40 1.38
1.07 1.10 1.08 1.06 1.04 1.05 1.10 1.06 0.95 0.99 1.16 1.21 1.11 1.00 0.99 1.05 1.09 1.16 1.30 1.33 1.41 1.34 1.23 1.18 1.27 1.57 1.70 1.41 1.47 1.42 1.40 1.68 1.72 1.91 1.90 1.67 1.46 1.33
1.06 0.96 0.92 0.93 0.95 0.95 0.92 0.94 0.95 1.00 1.09 1.10 1.14 1.14 1.12 1.19 1.27 1.35 1.52 1.60 1.65 1.43 1.24 1.10 1.07 1.17 1.34 1.42 1.47 1.34 1.40 1.64 1.84 1.97 1.99 1.87 1.65 1.45
1.02 0.93 0.87 0.85 0.86 0.87 0.86 0.87 0.90 0.96 1.06 1.19 1.25 1.27 1.32 1.39 1.46 1.50 1.64 1.77 1.69 1.41 1.20 1.05 1.04 1.15 1.20 1.19 1.26 1.38 1.46 1.66 1.80 1.83 1.74 1.79 1.75 1.51
0.84 0.80 0.80 0.80 0.80 0.81 0.86 0.90 0.93 0.93 1.09 1.30 1.43 1.48 1.55 1.60 1.65 1.68 1.69 1.68 1.53 1.32 1.16 1.06 1.17 1.54 1.61 1.19 0.94 1.16 1.61 1.75 1.68 1.67 1.55 1.50 1.59 1.44
0.73 0.73 0.72 0.74 0.79 0.83 0.89 0.98 1.03 1.05 1.17 1.32 1.44 1.51 1.62 1.75 1.79 1.71 1.60 1.54 1.44 1.24 1.06 0.94 1.04 1.49 1.99 1.75 1.41 1.23 1.35 1.65 1.77 1.73 1.45 1.30 1.36 1.35
0.66 0.68 0.68 0.73 0.80 0.86 0.93 1.01 1.12 1.23 1.32 1.48 1.54 1.56 1.64 1.83 1.80 1.60 1.45 1.36 1.30 1.18 1.04 0.84 0.82 1.08 1.47 1.71 1.61 1.31 1.34 1.47 1.62 1.86 1.75 1.65 1.48 1.32
0.67 0.68 0.69 0.73 0.81 0.87 0.94 1.05 1.19 1.26 1.35 1.45 1.51 1.55 1.62 1.74 1.70 1.45 1.27 1.23 1.15 1.07 1.00 0.86 0.81 0.95 1.28 1.65 1.49 1.20 1.19 1.22 1.23 1.24 1.44 1.79 2.19 2.19
0.75 0.77 0.76 0.78 0.83 0.90 0.99 1.06 1.19 1.26 1.35 1.48 1.51 1.47 1.46 1.43 1.27 1.21 1.16 1.15 1.15 1.09 1.03 0.99 0.92 0.96 1.09 1.23 1.32 1.21 1.10 1.05 1.02 1.15 1.40 1.36 1.39 1.57

GEFSNE_prec_meanprecacc_276.txt.gz
Total_Precipitation_Accumulation
1.85 1.81 1.84 1.76 1.72 1.73 1.84 2.03 2.25 2.05 1.53 1.14 1.05 1.02 1.02 1.04 1.10 1.02 0.92 1.04 1.04 1.05 1.12 1.16 1.15 1.16 1.19 1.26 1.38 1.49 1.57 1.67 1.75 1.82 1.88 1.95 2.12 2.37
1.72 1.69 1.66 1.64 1.68 1.70 1.74 1.83 2.01 2.11 1.78 1.22 1.03 1.00 1.06 1.07 1.13 1.01 0.93 1.06 1.01 0.99 1.00 1.03 1.06 1.06 1.06 1.09 1.15 1.22 1.28 1.34 1.44 1.60 1.76 1.87 1.97 2.11
1.62 1.60 1.52 1.46 1.52 1.54 1.56 1.61 1.69 1.82 1.77 1.28 1.06 1.04 1.07 1.03 1.02 0.95 0.87 0.85 0.82 0.90 0.88 0.91 0.95 0.98 0.98 1.01 1.06 1.13 1.17 1.20 1.29 1.42 1.57 1.70 1.82 1.87
1.46 1.49 1.45 1.39 1.40 1.42 1.46 1.43 1.42 1.45 1.54 1.38 1.08 0.97 0.95 0.89 0.88 0.88 0.84 0.79 0.72 0.81 0.83 0.85 0.92 0.95 0.93 0.93 0.95 1.02 1.09 1.15 1.19 1.24 1.33 1.43 1.56 1.71
1.33 1.39 1.40 1.41 1.41 1.38 1.38 1.36 1.33 1.34 1.42 1.45 1.18 0.96 0.90 0.87 0.87 0.84 0.82 0.80 0.73 0.78 0.82 0.82 0.84 0.89 0.91 0.91 0.92 0.93 0.97 1.03 1.12 1.18 1.25 1.33 1.42 1.53
1.27 1.34 1.36 1.34 1.28 1.24 1.26 1.24 1.27 1.33 1.36 1.42 1.32 1.12 0.97 0.87 0.91 0.93 0.90 0.82 0.79 0.78 0.88 0.87 0.88 0.89 0.90 0.88 0.85 0.84 0.86 0.95 1.09 1.25 1.37 1.43 1.44 1.47
1.33 1.31 1.33 1.38 1.31 1.24 1.22 1.20 1.23 1.32 1.41 1.48 1.39 1.19 1.03 0.93 0.86 0.82 0.89 0.88 0.86 0.79 0.84 0.83 0.85 0.87 0.89 0.95 0.97 0.97 1.00 1.09 1.23 1.38 1.49 1.56 1.58 1.60
1.30 1.21 1.20 1.29 1.28 1.29 1.27 1.24 1.29 1.39 1.49 1.54 1.44 1.24 0.98 0.88 0.89 1.02 1.14 1.26 1.18 0.83 0.86 0.95 1.01 1.09 1.05 1.03 1.14 1.17 1.18 1.25 1.33 1.41 1.49 1.56 1.58 1.60
1.17 1.12 1.08 1.06 1.13 1.06 1.12 1.18 1.19 1.30 1.39 1.40 1.34 1.10 0.95 0.90 1.08 1.26 1.29 1.32 1.16 0.94 1.08 1.24 1.15 1.12 1.04 1.08 1.25 1.19 1.17 1.20 1.24 1.30 1.35 1.40 1.45 1.48
1.06 1.00 0.98 0.96 0.98 1.06 1.13 1.19 1.09 1.03 1.03 1.00 0.98 0.94 0.93 1.00 1.22 1.48 1.59 1.63 1.40 1.18 1.16 1.29 1.10 1.00 0.94 1.00 1.16 1.14 1.09 1.12 1.18 1.25 1.30 1.34 1.37 1.37
1.06 1.02 1.00 0.95 1.05 1.20 1.24 1.25 1.10 0.94 0.94 1.01 1.07 1.07 1.11 1.16 1.24 1.51 1.78 1.94 1.69 1.21 1.02 1.08 1.02 0.99 0.98 0.97 1.06 1.18 1.13 1.11 1.16 1.21 1.22 1.25 1.32 1.37
1.08 1.05 1.13 1.08 1.17 1.27 1.19 1.19 1.12 0.93 0.87 0.88 0.91 0.93 0.87 0.89 1.08 1.23 1.67 2.15 1.89 1.44 0.98 1.05 1.10 1.25 1.47 1.06 0.94 1.02 1.08 1.11 1.12 1.14 1.18 1.23 1.28 1.27
1.13 1.06 1.05 1.24 1.32 1.34 1.22 1.03 1.04 1.11 1.00 0.90 0.88 0.88 0.86 0.85 0.88 0.94 1.22 1.92 2.28 1.78 1.08 1.42 1.65 1.40 1.58 1.22 0.96 0.98 1.05 1.13 1.19 1.19 1.23 1.27 1.29 1.36
1.06 0.98 1.02 1.24 1.26 1.21 1.12 1.13 1.23 1.16 0.97 0.98 0.97 0.94 0.91 0.90 0.91 0.95 1.01 1.21 1.57 1.74 1.38 1.67 2.11 1.71 1.79 1.49 1.09 1.02 1.08 1.24 1.39 1.38 1.33 1.43 1.41 1.43
1.04 1.11 1.16 1.18 1.12 1.08 1.11 1.13 1.09 1.02 1.05 1.13 1.08 0.97 0.92 0.95 1.00 1.06 1.08 1.10 1.19 1.25 1.26 1.35 1.67 1.70 1.89 1.82 1.38 1.16 1.26 1.34 1.50 1.70 1.66 1.54 1.41 1.39
1.10 1.12 1.11 1.08 1.06 1.07 1.13 1.08 0.98 1.01 1.18 1.23 1.13 1.02 1.01 1.08 1.11 1.17 1.31 1.33 1.42 1.35 1.23 1.18 1.28 1.57 1.71 1.41 1.48 1.43 1.41 1.69 1.73 1.91 1.91 1.68 1.47 1.33
1.10 0.99 0.95 0.97 0.99 0.98 0.95 0.97 0.98 1.03 1.12 1.12 1.17 1.16 1.14 1.22 1.30 1.37 1.53 1.62 1.66 1.44 1.25 1.10 1.07 1.18 1.35 1.43 1.47 1.34 1.40 1.64 1.85 1.97 1.99 1.88 1.65 1.46
1.06 0.96 0.91 0.89 0.91 0.91 0.90 0.90 0.93 0.99 1.09 1.22 1.28 1.30 1.35 1.41 1.49 1.53 1.66 1.78 1.70 1.42 1.21 1.06 1.04 1.16 1.21 1.20 1.26 1.38 1.46 1.66 1.80 1.83 1.75 1.80 1.76 1.51
0.87 0.84 0.83 0.83 0.84 0.85 0.89 0.94 0.96 0.96 1.12 1.33 1.46 1.51 1.59 1.63 1.67 1.71 1.71 1.70 1.54 1.33 1.17 1.07 1.18 1.56 1.63 1.20 0.95 1.16 1.62 1.76 1.69 1.68 1.56 1.51 1.60 1.44
0.77 0.77 0.76 0.77 0.82 0.87 0.93 1.02 1.07 1.09 1.20 1.36 1.47 1.54 1.65 1.78 1.82 1.73 1.62 1.56 1.46 1.26 1.08 0.96 1.05 1.51 2.02 1.77 1.43 1.23 1.36 1.66 1.78 1.74 1.45 1.31 1.36 1.36
0.72 0.72 0.73 0.77 0.84 0.89 0.96 1.05 1.16 1.27 1.36 1.52 1.57 1.60 1.67 1.86 1.83 1.62 1.48 1.38 1.32 1.20 1.06 0.86 0.83 1.09 1.49 1.74 1.63 1.32 1.35 1.47 1.63 1.88 1.77 1.67 1.50 1.33
0.74 0.75 0.75 0.78 0.85 0.91 0.97 1.09 1.22 1.30 1.39 1.49 1.55 1.58 1.65 1.77 1.72 1.48 1.29 1.25 1.17 1.09 1.02 0.88 0.82 0.96 1.30 1.68 1.52 1.21 1.20 1.23 1.23 1.25 1.46 1.81 2.22 2.22
0.81 0.83 0.82 0.83 0.88 0.95 1.03 1.10 1.22 1.30 1.39 1.52 1.55 1.51 1.50 1.46 1.30 1.24 1.19 1.17 1.18 1.11 1.05 1.01 0.93 0.98 1.11 1.25 1.35 1.23 1.11 1.06 1.03 1.16 1.41 1.37 1.41 1.58

GEFSNE_prec_meanprecacc_282.txt.gz
Total_Precipitation_Accumulation
1.92 1.89 1.90 1.81 1.75 1.75 1.86 2.05 2.27 2.06 1.54 1.16 1.06 1.03 1.03 1.04 1.11 1.03 0.93 1.06 1.06 1.07 1.14 1.18 1.16 1.16 1.19 1.26 1.39 1.49 1.58 1.67 1.76 1.83 1.89 1.97 2.14 2.39
1.79 1.75 1.72 1.69 1.71 1.72 1.76 1.84 2.02 2.13 1.80 1.23 1.04 1.02 1.07 1.07 1.13 1.01 0.94 1.08 1.03 1.01 1.01 1.06 1.08 1.07 1.07 1.10 1.16 1.23 1.29 1.35 1.45 1.61 1.77 1.88 1.98 2.13
1.68 1.67 1.58 1.51 1.57 1.58 1.58 1.63 1.71 1.83 1.78 1.30 1.07 1.05 1.08 1.04 1.03 0.95 0.88 0.85 0.83 0.91 0.89 0.92 0.98 1.00 1.00 1.03 1.08 1.15 1.18 1.21 1.29 1.42 1.58 1.72 1.84 1.89
1.50 1.54 1.50 1.45 1.45 1.46 1.48 1.45 1.43 1.46 1.55 1.40 1.09 0.98 0.95 0.90 0.89 0.89 0.84 0.80 0.73 0.83 0.85 0.87 0.94 0.98 0.96 0.95 0.97 1.03 1.10 1.15 1.19 1.25 1.34 1.44 1.58 1.73
1.36 1.42 1.43 1.46 1.46 1.43 1.41 1.37 1.34 1.35 1.43 1.46 1.19 0.98 0.91 0.88 0.88 0.85 0.82 0.81 0.75 0.81 0.84 0.84 0.87 0.91 0.93 0.93 0.93 0.93 0.97 1.04 1.12 1.18 1.26 1.34 1.43 1.55
1.29 1.36 1.39 1.37 1.32 1.28 1.30 1.26 1.29 1.34 1.37 1.43 1.34 1.14 0.98 0.88 0.93 0.94 0.91 0.83 0.81 0.80 0.90 0.89 0.90 0.90 0.91 0.89 0.86 0.84 0.86 0.95 1.09 1.25 1.38 1.44 1.46 1.49
1.35 1.32 1.35 1.40 1.34 1.27 1.26 1.24 1.25 1.34 1.43 1.50 1.41 1.22 1.05 0.95 0.88 0.84 0.90 0.90 0.87 0.80 0.85 0.84 0.86 0.88 0.90 0.95 0.97 0.97 1.00 1.09 1.23 1.38 1.50 1.57 1.59 1.61
1.32 1.23 1.22 1.31 1.30 1.31 1.30 1.27 1.31 1.40 1.51 1.56 1.47 1.27 1.01 0.90 0.91 1.04 1.15 1.28 1.19 0.84 0.87 0.97 1.02 1.10 1.06 1.03 1.15 1.18 1.19 1.26 1.34 1.41 1.49 1.56 1.59 1.61
1.20 1.14 1.10 1.08 1.16 1.08 1.14 1.21 1.23 1.32 1.41 1.42 1.37 1.12 0.98 0.92 1.10 1.28 1.31 1.34 1.17 0.95 1.10 1.26 1.16 1.13 1.05 1.09 1.26 1.20 1.18 1.20 1.25 1.31 1.36 1.41 1.46 1.49
1.08 1.02 1.01 0.99 1.01 1.09 1.17 1.23 1.13 1.07 1.06 1.03 1.01 0.96 0.96 1.03 1.25 1.50 1.61 1.66 1.43 1.20 1.18 1.31 1.12 1.02 0.96 1.01 1.17 1.15 1.09 1.12 1.18 1.26 1.31 1.35 1.38 1.38
1.08 1.04 1.02 0.97 1.08 1.25 1.30 1.31 1.14 0.98 0.99 1.05 1.11 1.11 1.15 1.20 1.28 1.55 1.81 1.97 1.73 1.24 1.04 1.10 1.04 1.01 0.99 0.98 1.06 1.18 1.13 1.11 1.16 1.21 1.23 1.26 1.33 1.38
1.10 1.07 1.15 1.10 1.20 1.30 1.23 1.25 1.17 0.97 0.91 0.92 0.95 0.97 0.91 0.94 1.13 1.28 1.71 2.19 1.92 1.48 1.01 1.07 1.12 1.26 1.49 1.07 0.95 1.03 1.09 1.12 1.12 1.15 1.18 1.23 1.29 1.27
1.16 1.08 1.07 1.27 1.35 1.37 1.25 1.07 1.09 1.15 1.04 0.94 0.92 0.91 0.90 0.89 0.93 0.98 1.26 1.96 2.32 1.81 1.10 1.45 1.68 1.42 1.59 1.24 0.97 0.99 1.06 1.13 1.19 1.20 1.24 1.28 1.30 1.36
1.09 1.01 1.05 1.28 1.30 1.26 1.16 1.17 1.26 1.20 1.00 1.02 1.01 0.98 0.95 0.94 0.95 0.99 1.06 1.25 1.60 1.77 1.40 1.68 2.13 1.72 1.81 1.51 1.10 1.03 1.10 1.25 1.40 1.39 1.33 1.43 1.41 1.43
1.08 1.14 1.19 1.22 1.17 1.12 1.15 1.17 1.13 1.05 1.08 1.16 1.11 1.00 0.95 0.98 1.03 1.10 1.12 1.14 1.23 1.28 1.28 1.36 1.68 1.72 1.90 1.84 1.39 1.17 1.27 1.35 1.51 1.70 1.67 1.54 1.41 1.40
1.13 1.16 1.15 1.13 1.11 1.12 1.18 1.12 1.01 1.04 1.20 1.26 1.16 1.05 1.04 1.11 1.14 1.20 1.35 1.37 1.47 1.39 1.26 1.20 1.29 1.59 1.72 1.43 1.49 1.44 1.42 1.70 1.74 1.92 1.91 1.68 1.47 1.33
1.14 1.04 1.01 1.02 1.04 1.03 1.00 1.01 1.02 1.07 1.16 1.16 1.20 1.19 1.17 1.25 1.33 1.40 1.56 1.65 1.69 1.47 1.27 1.12 1.09 1.19 1.36 1.44 1.48 1.35 1.42 1.66 1.86 1.98 2.00 1.88 1.66 1.46
1.10 1.00 0.96 0.94 0.95 0.96 0.94 0.94 0.97 1.03 1.12 1.25 1.31 1.33 1.37 1.44 1.52 1.56 1.69 1.82 1.73 1.44 1.23 1.08 1.06 1.18 1.23 1.22 1.28 1.39 1.48 1.67 1.81 1.84 1.75 1.81 1.76 1.52
0.92 0.88 0.88 0.88 0.89 0.90 0.93 0.97 1.00 1.00 1.15 1.36 1.49 1.54 1.61 1.65 1.70 1.74 1.75 1.73 1.58 1.36 1.20 1.09 1.19 1.58 1.65 1.22 0.96 1.17 1.63 1.76 1.70 1.69 1.57 1.52 1.61 1.45
0.82 0.82 0.81 0.82 0.87 0.92 0.97 1.06 1.11 1.13 1.24 1.40 1.51 1.57 1.67 1.80 1.84 1.76 1.65 1.60 1.49 1.29 1.11 0.98 1.07 1.52 2.04 1.79 1.44 1.24 1.37 1.67 1.79 1.75 1.47 1.32 1.37 1.36
0.78 0.78 0.78 0.82 0.89 0.96 1.02 1.11 1.22 1.33 1.41 1.57 1.62 1.63 1.70 1.88 1.86 1.65 1.51 1.41 1.35 1.23 1.08 0.88 0.84 1.11 1.51 1.76 1.65 1.33 1.36 1.48 1.64 1.89 1.79 1.69 1.51 1.34
0.81 0.81 0.81 0.84 0.92 0.98 1.04 1.15 1.28 1.35 1.44 1.54 1.60 1.63 1.69 1.80 1.75 1.50 1.32 1.28 1.20 1.12 1.05 0.90 0.84 0.98 1.32 1.71 1.54 1.23 1.21 1.24 1.25 1.26 1.47 1.83 2.25 2.25
0.89 0.92 0.91 0.91 0.96 1.03 1.10 1.17 1.29 1.36 1.43 1.56 1.60 1.56 1.54 1.50 1.33 1.27 1.22 1.21 1.21 1.15 1.09 1.04 0.96 1.00 1.14 1.28 1.38 1.26 1.13 1.08 1.04 1.17 1.41 1.38 1.42 1.60

GEFSNE_prec_meanprecacc_288.txt.gz
Total_Precipitation_Accumulation
1.98 1.94 1.96 1.87 1.82 1.83 1.93 2.12 2.34 2.13 1.59 1.20 1.10 1.04 1.04 1.05 1.11 1.04 0.93 1.07 1.07 1.08 1.15 1.19 1.17 1.18 1.21 1.28 1.40 1.51 1.59 1.69 1.78 1.85 1.91 1.98 2.15 2.40
1.82 1.79 1.75 1.73 1.76 1.78 1.83 1.91 2.09 2.19 1.85 1.28 1.08 1.04 1.08 1.08 1.14 1.02 0.95 1.09 1.04 1.02 1.02 1.07 1.09 1.09 1.09 1.12 1.18 1.25 1.31 1.36 1.46 1.62 1.78 1.90 2.00 2.14
1.73 1.70 1.61 1.54 1.61 1.63 1.63 1.68 1.77 1.90 1.84 1.34 1.12 1.08 1.10 1.05 1.04 0.97 0.89 0.87 0.84 0.92 0.91 0.93 0.99 1.01 1.02 1.05 1.11 1.18 1.21 1.23 1.31 1.44 1.59 1.73 1.85 1.90
1.54 1.58 1.54 1.48 1.47 1.50 1.53 1.50 1.48 1.51 1.60 1.44 1.13 1.01 0.98 0.91 0.91 0.91 0.87 0.82 0.75 0.85 0.87 0.88 0.96 1.00 0.98 0.98 1.00 1.07 1.14 1.18 1.21 1.26 1.36 1.45 1.59 1.74
1.38 1.44 1.47 1.50 1.49 1.45 1.44 1.42 1.40 1.40 1.49 1.52 1.24 1.02 0.94 0.90 0.89 0.86 0.84 0.83 0.77 0.83 0.86 0.86 0.88 0.93 0.95 0.96 0.97 0.98 1.01 1.07 1.14 1.20 1.27 1.35 1.44 1.56
1.33 1.39 1.41 1.39 1.35 1.30 1.33 1.30 1.33 1.39 1.42 1.50 1.41 1.20 1.03 0.91 0.95 0.96 0.94 0.85 0.82 0.81 0.91 0.90 0.91 0.92 0.93 0.92 0.88 0.86 0.88 0.96 1.10 1.26 1.38 1.45 1.46 1.49
1.39 1.36 1.37 1.42 1.36 1.29 1.28 1.26 1.29 1.38 1.48 1.55 1.47 1.27 1.10 0.99 0.92 0.86 0.93 0.92 0.89 0.82 0.86 0.85 0.87 0.89 0.91 0.97 0.99 0.98 1.01 1.10 1.23 1.39 1.50 1.57 1.59 1.61
1.35 1.26 1.24 1.33 1.32 1.33 1.32 1.29 1.34 1.44 1.54 1.60 1.51 1.31 1.03 0.92 0.93 1.05 1.17 1.31 1.23 0.87 0.88 0.98 1.03 1.11 1.07 1.04 1.16 1.18 1.20 1.26 1.34 1.42 1.49 1.57 1.60 1.61
1.22 1.16 1.11 1.09 1.17 1.10 1.16 1.23 1.25 1.35 1.43 1.44 1.39 1.14 1.00 0.94 1.12 1.30 1.32 1.35 1.20 0.99 1.13 1.28 1.18 1.14 1.06 1.10 1.27 1.21 1.18 1.21 1.26 1.32 1.36 1.41 1.46 1.50
1.10 1.03 1.02 1.00 1.02 1.11 1.18 1.24 1.15 1.08 1.08 1.04 1.03 0.98 0.98 1.05 1.27 1.52 1.63 1.68 1.45 1.24 1.23 1.35 1.15 1.03 0.97 1.02 1.19 1.16 1.10 1.13 1.19 1.26 1.31 1.35 1.38 1.39
1.10 1.05 1.04 0.98 1.09 1.26 1.31 1.32 1.16 1.00 1.00 1.06 1.12 1.12 1.17 1.23 1.32 1.59 1.85 2.00 1.76 1.28 1.08 1.15 1.08 1.03 1.00 0.99 1.07 1.19 1.14 1.12 1.17 1.22 1.23 1.26 1.33 1.39
1.12 1.09 1.17 1.12 1.22 1.32 1.25 1.26 1.19 0.99 0.93 0.93 0.97 0.99 0.93 0.97 1.16 1.31 1.74 2.21 1.95 1.50 1.04 1.10 1.16 1.30 1.51 1.09 0.96 1.04 1.10 1.12 1.13 1.15 1.19 1.24 1.29 1.28
1.19 1.11 1.09 1.29 1.37 1.39 1.27 1.08 1.10 1.17 1.06 0.96 0.93 0.93 0.92 0.92 0.95 1.01 1.29 1.99 2.35 1.84 1.13 1.47 1.71 1.46 1.64 1.27 0.99 1.00 1.06 1.14 1.20 1.21 1.25 1.29 1.31 1.37
1.12 1.03 1.07 1.30 1.31 1.27 1.18 1.18 1.28 1.21 1.03 1.05 1.04 1.00 0.97 0.96 0.97 1.01 1.08 1.28 1.63 1.79 1.42 1.71 2.16 1.76 1.86 1.55 1.13 1.05 1.11 1.26 1.41 1.40 1.34 1.45 1.43 1.44
1.11 1.18 1.22 1.24 1.19 1.14 1.18 1.19 1.14 1.06 1.10 1.20 1.15 1.03 0.98 1.01 1.06 1.12 1.15 1.17 1.27 1.32 1.32 1.40 1.71 1.75 1.94 1.88 1.43 1.19 1.29 1.37 1.52 1.71 1.68 1.56 1.43 1.41
1.18 1.21 1.20 1.16 1.14 1.15 1.21 1.15 1.03 1.06 1.23 1.29 1.19 1.09 1.08 1.14 1.17 1.23 1.38 1.42 1.52 1.45 1.32 1.25 1.33 1.63 1.76 1.46 1.52 1.47 1.44 1.72 1.75 1.93 1.92 1.69 1.48 1.34
1.19 1.09 1.04 1.05 1.08 1.06 1.04 1.05 1.05 1.09 1.18 1.18 1.23 1.23 1.22 1.30 1.37 1.44 1.61 1.70 1.74 1.52 1.33 1.18 1.15 1.24 1.40 1.48 1.52 1.39 1.45 1.68 1.87 1.99 2.02 1.89 1.67 1.47
1.16 1.06 1.01 0.98 0.99 0.99 0.98 0.98 1.01 1.05 1.14 1.28 1.34 1.36 1.41 1.48 1.57 1.61 1.74 1.86 1.78 1.49 1.27 1.12 1.12 1.24 1.29 1.26 1.31 1.42 1.50 1.69 1.83 1.86 1.77 1.83 1.78 1.53
0.97 0.93 0.93 0.92 0.92 0.93 0.97 1.01 1.03 1.03 1.18 1.39 1.51 1.56 1.64 1.69 1.74 1.79 1.80 1.78 1.63 1.40 1.24 1.13 1.24 1.63 1.70 1.26 0.99 1.19 1.64 1.78 1.71 1.70 1.58 1.53 1.63 1.46
0.87 0.86 0.86 0.86 0.91 0.95 1.00 1.09 1.15 1.17 1.28 1.43 1.54 1.60 1.71 1.84 1.88 1.79 1.70 1.64 1.54 1.34 1.15 1.02 1.11 1.56 2.07 1.82 1.47 1.26 1.38 1.68 1.81 1.77 1.48 1.33 1.38 1.37
0.84 0.83 0.83 0.87 0.93 1.00 1.06 1.15 1.26 1.37 1.45 1.61 1.66 1.67 1.74 1.93 1.90 1.69 1.54 1.45 1.39 1.27 1.12 0.91 0.88 1.14 1.54 1.79 1.68 1.35 1.37 1.50 1.65 1.91 1.81 1.71 1.54 1.36
0.88 0.88 0.87 0.90 0.97 1.04 1.10 1.21 1.35 1.41 1.50 1.60 1.65 1.68 1.74 1.85 1.80 1.55 1.36 1.32 1.24 1.16 1.08 0.93 0.86 1.01 1.35 1.75 1.57 1.24 1.22 1.26 1.26 1.28 1.49 1.85 2.28 2.27
0.95 0.98 0.97 0.98 1.02 1.09 1.17 1.23 1.36 1.43 1.51 1.63 1.66 1.62 1.61 1.56 1.39 1.32 1.27 1.25 1.26 1.19 1.12 1.08 0.99 1.03 1.17 1.31 1.41 1.28 1.15 1.09 1.06 1.19 1.43 1.39 1.43 1.61

GEFSNE_prec_meanprecacc_294.txt.gz
Total_Precipitation_Accumulation
2.05 2.00 2.02 1.92 1.85 1.85 1.96 2.18 2.42 2.21 1.65 1.23 1.13 1.07 1.07 1.08 1.14 1.06 0.95 1.08 1.08 1.08 1.16 1.20 1.18 1.19 1.23 1.31 1.44 1.55 1.65 1.74 1.83 1.89 1.94 2.01 2.17 2.41
1.88 1.84 1.80 1.77 1.79 1.80 1.85 1.94 2.14 2.26 1.92 1.32 1.13 1.09 1.13 1.12 1.18 1.05 0.98 1.12 1.06 1.03 1.04 1.08 1.10 1.10 1.10 1.14 1.20 1.27 1.34 1.39 1.49 1.66 1.82 1.93 2.03 2.17
1.78 1.74 1.64 1.58 1.64 1.66 1.66 1.70 1.79 1.93 1.88 1.38 1.15 1.13 1.15 1.10 1.09 1.00 0.92 0.89 0.86 0.94 0.92 0.94 1.00 1.02 1.03 1.06 1.13 1.20 1.23 1.25 1.33 1.46 1.62 1.76 1.88 1.92
1.60 1.62 1.57 1.50 1.51 1.53 1.56 1.53 1.50 1.53 1.63 1.47 1.17 1.06 1.03 0.96 0.95 0.95 0.90 0.85 0.77 0.88 0.88 0.89 0.98 1.01 0.99 0.99 1.02 1.09 1.16 1.19 1.23 1.28 1.37 1.47 1.61 1.76
1.44 1.49 1.51 1.54 1.53 1.50 1.48 1.45 1.42 1.42 1.51 1.55 1.28 1.06 1.00 0.95 0.94 0.91 0.87 0.86 0.79 0.85 0.88 0.87 0.90 0.95 0.97 0.98 0.99 1.00 1.03 1.09 1.16 1.22 1.29 1.37 1.46 1.58
1.39 1.45 1.46 1.43 1.38 1.35 1.36 1.33 1.36 1.42 1.45 1.52 1.44 1.25 1.09 0.98 1.02 1.02 0.99 0.90 0.86 0.84 0.93 0.91 0.92 0.93 0.95 0.94 0.91 0.90 0.91 0.99 1.13 1.28 1.40 1.47 1.48 1.51
1.45 1.41 1.42 1.46 1.39 1.33 1.31 1.30 1.33 1.42 1.51 1.58 1.49 1.31 1.16 1.07 1.01 0.94 0.99 0.97 0.94 0.86 0.89 0.87 0.88 0.90 0.93 0.98 1.01 1.01 1.04 1.12 1.25 1.40 1.52 1.58 1.60 1.62
1.42 1.31 1.30 1.38 1.37 1.38 1.36 1.33 1.37 1.47 1.58 1.63 1.54 1.34 1.07 0.98 1.00 1.13 1.25 1.38 1.30 0.92 0.92 1.01 1.05 1.12 1.07 1.05 1.17 1.21 1.22 1.28 1.36 1.43 1.50 1.57 1.60 1.62
1.29 1.22 1.16 1.14 1.21 1.13 1.19 1.26 1.27 1.37 1.46 1.47 1.42 1.17 1.02 0.97 1.17 1.37 1.40 1.42 1.25 1.03 1.16 1.32 1.22 1.17 1.07 1.11 1.29 1.22 1.21 1.23 1.28 1.34 1.38 1.43 1.47 1.51
1.17 1.09 1.06 1.04 1.06 1.14 1.21 1.27 1.17 1.10 1.09 1.06 1.04 1.00 0.99 1.07 1.30 1.56 1.69 1.75 1.52 1.30 1.28 1.41 1.20 1.08 1.01 1.05 1.22 1.18 1.12 1.15 1.21 1.28 1.33 1.36 1.39 1.40
1.19 1.12 1.09 1.03 1.14 1.30 1.35 1.35 1.19 1.02 1.01 1.07 1.13 1.13 1.19 1.25 1.35 1.63 1.90 2.07 1.84 1.36 1.14 1.19 1.12 1.07 1.05 1.03 1.11 1.23 1.17 1.14 1.20 1.24 1.25 1.28 1.34 1.40
1.22 1.17 1.23 1.17 1.27 1.37 1.29 1.30 1.22 1.02 0.95 0.95 0.98 1.00 0.95 0.99 1.20 1.34 1.78 2.26 2.00 1.55 1.08 1.13 1.18 1.33 1.56 1.13 0.99 1.06 1.12 1.16 1.16 1.18 1.22 1.26 1.31 1.29
1.26 1.18 1.16 1.34 1.41 1.44 1.31 1.11 1.12 1.18 1.08 0.98 0.95 0.95 0.94 0.94 0.98 1.03 1.31 2.02 2.38 1.87 1.15 1.49 1.72 1.48 1.67 1.31 1.02 1.02 1.08 1.16 1.23 1.24 1.28 1.31 1.32 1.38
1.18 1.07 1.11 1.35 1.35 1.31 1.21 1.21 1.30 1.23 1.04 1.07 1.07 1.03 1.00 0.99 1.00 1.04 1.10 1.30 1.65 1.81 1.44 1.72 2.18 1.78 1.89 1.59 1.17 1.08 1.13 1.28 1.43 1.43 1.37 1.47 1.45 1.46
1.16 1.22 1.26 1.28 1.23 1.18 1.21 1.22 1.17 1.09 1.13 1.22 1.16 1.05 0.99 1.02 1.08 1.15 1.18 1.20 1.29 1.36 1.35 1.42 1.74 1.77 1.96 1.92 1.47 1.24 1.33 1.39 1.54 1.74 1.71 1.58 1.44 1.42
1.24 1.26 1.24 1.20 1.18 1.19 1.25 1.19 1.06 1.09 1.25 1.31 1.21 1.11 1.09 1.15 1.19 1.25 1.41 1.45 1.55 1.49 1.36 1.29 1.37 1.66 1.78 1.49 1.56 1.52 1.50 1.75 1.78 1.95 1.94 1.72 1.50 1.35
1.27 1.15 1.10 1.10 1.12 1.11 1.07 1.08 1.09 1.13 1.22 1.21 1.25 1.25 1.24 1.32 1.40 1.47 1.64 1.73 1.76 1.55 1.36 1.22 1.18 1.27 1.44 1.52 1.57 1.45 1.51 1.74 1.92 2.02 2.04 1.92 1.69 1.48
1.25 1.14 1.08 1.03 1.03 1.04 1.02 1.02 1.05 1.09 1.17 1.31 1.36 1.38 1.43 1.51 1.60 1.64 1.77 1.89 1.80 1.51 1.29 1.14 1.14 1.28 1.34 1.33 1.37 1.47 1.56 1.76 1.90 1.91 1.80 1.85 1.81 1.54
1.05 1.01 1.00 1.00 0.99 0.99 1.02 1.05 1.08 1.08 1.21 1.43 1.55 1.59 1.66 1.71 1.77 1.82 1.83 1.81 1.66 1.43 1.26 1.15 1.26 1.65 1.74 1.30 1.04 1.24 1.68 1.83 1.78 1.78 1.63 1.56 1.65 1.48
0.95 0.93 0.92 0.92 0.97 1.02 1.07 1.15 1.20 1.21 1.31 1.47 1.58 1.64 1.74 1.87 1.91 1.83 1.73 1.67 1.57 1.37 1.18 1.05 1.14 1.59 2.11 1.85 1.50 1.30 1.42 1.72 1.85 1.82 1.55 1.38 1.41 1.39
0.92 0.89 0.89 0.92 0.99 1.05 1.11 1.20 1.31 1.42 1.50 1.64 1.69 1.71 1.78 1.97 1.94 1.72 1.58 1.49 1.43 1.30 1.15 0.95 0.92 1.18 1.58 1.84 1.74 1.40 1.42 1.55 1.70 1.94 1.85 1.76 1.58 1.39
0.95 0.95 0.94 0.96 1.03 1.09 1.15 1.26 1.40 1.47 1.55 1.65 1.70 1.72 1.78 1.90 1.85 1.59 1.40 1.36 1.28 1.20 1.12 0.97 0.91 1.06 1.41 1.81 1.63 1.30 1.28 1.32 1.32 1.32 1.53 1.88 2.31 2.30
1.02 1.04 1.04 1.05 1.09 1.16 1.23 1.29 1.41 1.48 1.56 1.68 1.71 1.67 1.65 1.61 1.44 1.37 1.32 1.30 1.31 1.24 1.18 1.14 1.06 1.10 1.23 1.37 1.47 1.34 1.20 1.14 1.11 1.23 1.47 1.43 1.46 1.63

GEFSNE_prec_meanprecacc_300.txt.gz
Total_Precipitation_Accumulation
2.11 2.05 2.05 1.95 1.88 1.88 1.99 2.20 2.45 2.25 1.70 1.29 1.19 1.13 1.10 1.10 1.16 1.07 0.96 1.09 1.09 1.09 1.17 1.22 1.19 1.21 1.24 1.32 1.46 1.59 1.70 1.79 1.86 1.91 1.96 2.02 2.18 2.43
1.95 1.89 1.83 1.79 1.81 1.83 1.87 1.97 2.17 2.29 1.95 1.36 1.16 1.13 1.18 1.17 1.22 1.08 0.99 1.12 1.07 1.04 1.05 1.10 1.12 1.11 1.11 1.15 1.21 1.29 1.38 1.44 1.52 1.68 1.84 1.95 2.05 2.19
1.88 1.81 1.68 1.60 1.66 1.67 1.67 1.72 1.81 1.96 1.91 1.40 1.18 1.16 1.19 1.15 1.13 1.04 0.95 0.92 0.88 0.95 0.93 0.97 1.02 1.04 1.05 1.07 1.14 1.21 1.25 1.29 1.38 1.49 1.64 1.79 1.90 1.94
1.68 1.71 1.65 1.55 1.53 1.54 1.58 1.54 1.52 1.55 1.65 1.49 1.19 1.08 1.06 1.00 0.99 0.99 0.94 0.89 0.80 0.91 0.91 0.92 1.00 1.04 1.01 1.01 1.03 1.10 1.17 1.21 1.26 1.33 1.41 1.50 1.64 1.78
1.51 1.56 1.58 1.60 1.57 1.51 1.49 1.46 1.43 1.44 1.52 1.57 1.29 1.08 1.02 0.98 0.98 0.95 0.92 0.91 0.83 0.89 0.93 0.92 0.94 0.99 1.01 1.00 1.01 1.01 1.05 1.11 1.19 1.25 1.34 1.41 1.48 1.61
1.45 1.50 1.52 1.49 1.43 1.38 1.38 1.34 1.37 1.43 1.46 1.54 1.46 1.27 1.12 1.02 1.05 1.06 1.03 0.94 0.90 0.88 0.98 0.97 0.98 0.98 0.99 0.97 0.93 0.92 0.93 1.02 1.16 1.32 1.43 1.51 1.52 1.55
1.51 1.47 1.48 1.52 1.44 1.37 1.34 1.32 1.35 1.44 1.53 1.60 1.51 1.33 1.19 1.11 1.05 0.97 1.02 1.01 0.97 0.89 0.93 0.92 0.94 0.96 0.98 1.03 1.05 1.05 1.07 1.15 1.28 1.44 1.55 1.61 1.64 1.67
1.47 1.36 1.36 1.45 1.43 1.43 1.40 1.36 1.40 1.50 1.61 1.66 1.56 1.36 1.09 1.00 1.02 1.17 1.28 1.41 1.35 0.96 0.97 1.07 1.10 1.17 1.12 1.10 1.22 1.25 1.25 1.32 1.39 1.46 1.54 1.61 1.63 1.65
1.34 1.26 1.21 1.20 1.27 1.19 1.25 1.31 1.31 1.40 1.48 1.50 1.45 1.19 1.04 0.99 1.19 1.40 1.44 1.46 1.28 1.07 1.23 1.40 1.28 1.23 1.12 1.15 1.33 1.26 1.24 1.26 1.31 1.37 1.41 1.46 1.51 1.53
1.23 1.13 1.10 1.08 1.10 1.19 1.26 1.33 1.23 1.14 1.13 1.09 1.07 1.02 1.01 1.09 1.33 1.59 1.73 1.80 1.56 1.34 1.35 1.49 1.28 1.15 1.06 1.09 1.26 1.21 1.16 1.19 1.25 1.32 1.37 1.41 1.43 1.43
1.24 1.17 1.13 1.06 1.17 1.35 1.40 1.40 1.24 1.07 1.05 1.10 1.16 1.16 1.22 1.29 1.39 1.67 1.94 2.11 1.89 1.41 1.19 1.26 1.19 1.14 1.11 1.09 1.17 1.28 1.21 1.18 1.23 1.28 1.29 1.32 1.39 1.44
1.28 1.23 1.29 1.22 1.31 1.41 1.34 1.35 1.27 1.07 0.99 0.99 1.01 1.04 0.98 1.02 1.23 1.38 1.81 2.29 2.03 1.59 1.12 1.16 1.23 1.39 1.62 1.19 1.04 1.12 1.18 1.21 1.21 1.23 1.27 1.31 1.36 1.34
1.34 1.25 1.23 1.41 1.47 1.49 1.37 1.17 1.17 1.23 1.12 1.02 0.99 0.98 0.97 0.97 1.01 1.06 1.33 2.04 2.40 1.89 1.17 1.51 1.75 1.52 1.72 1.37 1.08 1.07 1.13 1.22 1.28 1.29 1.33 1.37 1.38 1.44
1.27 1.15 1.19 1.43 1.42 1.38 1.28 1.28 1.37 1.29 1.10 1.12 1.12 1.07 1.03 1.02 1.03 1.07 1.12 1.31 1.67 1.83 1.46 1.74 2.20 1.80 1.92 1.63 1.21 1.13 1.17 1.32 1.48 1.48 1.42 1.53 1.51 1.52
1.25 1.31 1.34 1.36 1.31 1.25 1.28 1.30 1.25 1.15 1.19 1.28 1.21 1.09 1.03 1.05 1.10 1.18 1.21 1.22 1.32 1.38 1.38 1.45 1.76 1.79 1.99 1.94 1.50 1.27 1.36 1.43 1.58 1.78 1.76 1.63 1.49 1.48
1.32 1.35 1.32 1.27 1.25 1.26 1.31 1.25 1.14 1.16 1.31 1.36 1.25 1.14 1.12 1.19 1.22 1.29 1.45 1.49 1.59 1.53 1.40 1.33 1.41 1.70 1.82 1.52 1.58 1.54 1.52 1.78 1.81 1.99 1.98 1.76 1.55 1.40
1.35 1.24 1.18 1.17 1.19 1.18 1.14 1.15 1.15 1.20 1.27 1.25 1.29 1.29 1.29 1.37 1.44 1.51 1.67 1.77 1.81 1.59 1.40 1.27 1.24 1.34 1.50 1.56 1.61 1.47 1.53 1.76 1.94 2.05 2.07 1.96 1.73 1.53
1.34 1.24 1.16 1.10 1.10 1.11 1.09 1.08 1.10 1.14 1.22 1.35 1.40 1.42 1.48 1.56 1.64 1.68 1.81 1.93 1.84 1.54 1.33 1.19 1.19 1.33 1.40 1.39 1.43 1.51 1.59 1.79 1.92 1.94 1.83 1.88 1.84 1.58
1.14 1.10 1.08 1.06 1.05 1.05 1.08 1.11 1.13 1.12 1.25 1.46 1.59 1.63 1.71 1.76 1.82 1.86 1.87 1.86 1.70 1.47 1.29 1.19 1.30 1.69 1.78 1.34 1.08 1.27 1.71 1.85 1.80 1.81 1.67 1.59 1.68 1.51
1.04 1.01 0.99 0.99 1.03 1.08 1.13 1.20 1.25 1.26 1.35 1.50 1.61 1.67 1.78 1.92 1.96 1.87 1.77 1.72 1.62 1.41 1.23 1.10 1.18 1.63 2.15 1.88 1.52 1.31 1.43 1.74 1.88 1.86 1.59 1.42 1.45 1.43
1.02 0.99 0.97 0.99 1.05 1.11 1.16 1.25 1.36 1.47 1.54 1.68 1.73 1.74 1.82 2.00 1.98 1.77 1.62 1.54 1.48 1.35 1.21 1.00 0.96 1.22 1.62 1.88 1.77 1.42 1.44 1.56 1.71 1.97 1.89 1.82 1.64 1.44
1.05 1.04 1.02 1.04 1.10 1.16 1.21 1.31 1.45 1.52 1.60 1.70 1.75 1.77 1.83 1.94 1.89 1.64 1.45 1.42 1.34 1.25 1.17 1.03 0.96 1.11 1.46 1.85 1.67 1.33 1.31 1.35 1.35 1.36 1.57 1.93 2.37 2.36
1.11 1.14 1.13 1.14 1.18 1.24 1.30 1.36 1.48 1.55 1.62 1.74 1.77 1.73 1.71 1.67 1.49 1.42 1.37 1.35 1.36 1.29 1.23 1.20 1.12 1.16 1.29 1.42 1.51 1.38 1.24 1.19 1.16 1.28 1.51 1.47 1.50 1.67

GEFSNE_prec_meanprecacc_306.txt.gz
Total_Precipitation_Accumulation
2.18 2.13 2.12 2.02 1.97 1.97 2.08 2.29 2.52 2.31 1.75 1.33 1.23 1.16 1.14 1.15 1.23 1.14 1.03 1.14 1.13 1.12 1.19 1.23 1.21 1.23 1.27 1.34 1.48 1.62 1.73 1.82 1.90 1.96 2.00 2.06 2.21 2.46
2.03 1.98 1.91 1.87 1.90 1.91 1.96 2.04 2.23 2.33 1.98 1.38 1.19 1.16 1.22 1.21 1.28 1.15 1.07 1.20 1.12 1.08 1.08 1.12 1.13 1.13 1.14 1.17 1.23 1.30 1.40 1.46 1.55 1.72 1.88 2.00 2.09 2.22
1.95 1.90 1.77 1.67 1.73 1.75 1.76 1.80 1.87 2.00 1.94 1.42 1.19 1.17 1.22 1.18 1.17 1.09 1.02 0.99 0.95 1.00 0.97 1.00 1.04 1.06 1.06 1.09 1.15 1.22 1.26 1.30 1.40 1.52 1.68 1.82 1.94 1.98
1.74 1.78 1.73 1.62 1.60 1.62 1.66 1.61 1.57 1.59 1.68 1.51 1.20 1.10 1.08 1.02 1.02 1.02 0.98 0.94 0.87 0.97 0.95 0.95 1.03 1.06 1.03 1.02 1.04 1.12 1.18 1.22 1.28 1.36 1.45 1.53 1.66 1.81
1.55 1.61 1.65 1.67 1.64 1.59 1.56 1.52 1.48 1.48 1.55 1.58 1.30 1.10 1.04 1.00 1.01 0.98 0.94 0.93 0.87 0.94 0.98 0.96 0.97 1.02 1.03 1.02 1.03 1.04 1.07 1.13 1.20 1.28 1.38 1.45 1.52 1.64
1.48 1.54 1.57 1.55 1.50 1.45 1.45 1.41 1.42 1.47 1.49 1.56 1.47 1.28 1.14 1.03 1.08 1.09 1.07 0.97 0.93 0.90 1.01 1.01 1.02 1.02 1.02 1.00 0.96 0.94 0.96 1.05 1.19 1.34 1.47 1.56 1.57 1.58
1.54 1.50 1.52 1.57 1.50 1.43 1.41 1.39 1.41 1.50 1.57 1.62 1.53 1.34 1.20 1.12 1.07 1.00 1.05 1.04 1.01 0.92 0.96 0.95 0.97 0.99 1.01 1.06 1.08 1.07 1.10 1.18 1.32 1.47 1.58 1.65 1.69 1.72
1.50 1.39 1.39 1.49 1.49 1.49 1.46 1.42 1.46 1.56 1.64 1.68 1.57 1.36 1.10 1.01 1.03 1.18 1.31 1.45 1.39 0.99 1.00 1.10 1.13 1.21 1.16 1.13 1.26 1.28 1.28 1.35 1.42 1.49 1.57 1.64 1.66 1.69
1.38 1.29 1.25 1.24 1.33 1.24 1.30 1.36 1.36 1.45 1.51 1.51 1.46 1.19 1.04 0.99 1.20 1.42 1.47 1.49 1.32 1.10 1.26 1.43 1.31 1.26 1.15 1.18 1.36 1.29 1.27 1.29 1.33 1.39 1.43 1.49 1.54 1.56
1.28 1.17 1.14 1.12 1.15 1.25 1.32 1.38 1.28 1.19 1.16 1.10 1.08 1.03 1.02 1.10 1.34 1.61 1.75 1.83 1.60 1.38 1.38 1.53 1.30 1.17 1.08 1.12 1.29 1.25 1.19 1.22 1.28 1.35 1.40 1.43 1.45 1.46
1.31 1.23 1.18 1.10 1.22 1.40 1.46 1.47 1.30 1.12 1.10 1.14 1.18 1.18 1.24 1.30 1.40 1.69 1.97 2.15 1.94 1.45 1.24 1.29 1.22 1.16 1.13 1.11 1.21 1.33 1.26 1.23 1.28 1.33 1.34 1.35 1.42 1.47
1.34 1.29 1.36 1.28 1.36 1.47 1.41 1.42 1.33 1.12 1.04 1.04 1.06 1.07 1.00 1.03 1.24 1.39 1.83 2.32 2.06 1.63 1.16 1.20 1.26 1.42 1.66 1.23 1.07 1.15 1.23 1.26 1.26 1.29 1.33 1.37 1.40 1.37
1.42 1.32 1.29 1.48 1.54 1.55 1.43 1.23 1.22 1.28 1.18 1.08 1.05 1.03 1.01 1.00 1.03 1.07 1.35 2.06 2.43 1.92 1.20 1.54 1.79 1.56 1.75 1.39 1.11 1.10 1.17 1.26 1.33 1.34 1.38 1.43 1.45 1.50
1.36 1.23 1.26 1.50 1.50 1.45 1.34 1.34 1.43 1.36 1.17 1.19 1.19 1.14 1.08 1.05 1.06 1.09 1.14 1.34 1.69 1.85 1.48 1.77 2.23 1.84 1.95 1.65 1.24 1.15 1.20 1.36 1.52 1.52 1.46 1.59 1.57 1.59
1.32 1.39 1.41 1.43 1.37 1.32 1.36 1.37 1.32 1.22 1.27 1.35 1.28 1.15 1.07 1.08 1.13 1.21 1.23 1.25 1.34 1.40 1.39 1.47 1.79 1.82 2.02 1.97 1.52 1.29 1.38 1.46 1.61 1.82 1.80 1.68 1.55 1.54
1.38 1.41 1.38 1.34 1.33 1.33 1.39 1.33 1.21 1.23 1.38 1.42 1.30 1.18 1.16 1.22 1.25 1.31 1.48 1.52 1.63 1.56 1.43 1.36 1.44 1.73 1.86 1.55 1.62 1.57 1.54 1.80 1.84 2.03 2.03 1.80 1.59 1.46
1.43 1.31 1.24 1.23 1.26 1.25 1.21 1.21 1.21 1.27 1.34 1.30 1.33 1.33 1.33 1.41 1.47 1.54 1.71 1.81 1.85 1.62 1.44 1.31 1.28 1.38 1.54 1.60 1.65 1.51 1.56 1.78 1.96 2.08 2.12 2.00 1.78 1.58
1.42 1.32 1.24 1.16 1.16 1.17 1.15 1.15 1.17 1.21 1.29 1.41 1.46 1.47 1.52 1.60 1.69 1.72 1.86 1.98 1.89 1.58 1.37 1.23 1.24 1.39 1.46 1.45 1.48 1.55 1.64 1.82 1.95 1.96 1.86 1.92 1.89 1.63
1.21 1.17 1.15 1.12 1.11 1.11 1.14 1.17 1.19 1.19 1.32 1.53 1.65 1.69 1.75 1.80 1.86 1.91 1.92 1.91 1.76 1.52 1.35 1.23 1.34 1.73 1.83 1.39 1.12 1.31 1.75 1.90 1.84 1.84 1.70 1.63 1.72 1.55
1.11 1.08 1.06 1.05 1.09 1.15 1.19 1.27 1.32 1.33 1.43 1.58 1.68 1.73 1.83 1.97 2.01 1.92 1.82 1.77 1.67 1.47 1.29 1.16 1.23 1.67 2.18 1.91 1.55 1.34 1.47 1.77 1.92 1.90 1.63 1.46 1.48 1.47
1.10 1.07 1.04 1.06 1.12 1.18 1.23 1.31 1.43 1.54 1.61 1.76 1.80 1.81 1.88 2.06 2.04 1.82 1.67 1.59 1.54 1.41 1.26 1.05 1.01 1.27 1.66 1.94 1.82 1.46 1.48 1.61 1.76 2.01 1.93 1.86 1.68 1.48
1.15 1.14 1.11 1.11 1.17 1.22 1.27 1.38 1.52 1.58 1.67 1.77 1.81 1.83 1.89 1.99 1.94 1.69 1.50 1.47 1.38 1.30 1.21 1.07 1.01 1.17 1.52 1.92 1.73 1.38 1.36 1.40 1.41 1.42 1.63 1.98 2.41 2.39
1.21 1.24 1.23 1.24 1.26 1.31 1.37 1.43 1.54 1.61 1.68 1.80 1.83 1.78 1.76 1.71 1.54 1.47 1.41 1.39 1.40 1.34 1.28 1.25 1.18 1.22 1.35 1.49 1.58 1.43 1.29 1.24 1.21 1.34 1.57 1.53 1.55 1.71

GEFSNE_prec_meanprecacc_312.txt.gz
Total_Precipitation_Accumulation
2.20 2.15 2.14 2.05 2.02 2.04 2.14 2.36 2.61 2.40 1.82 1.39 1.28 1.21 1.18 1.19 1.29 1.20 1.08 1.22 1.21 1.19 1.25 1.29 1.27 1.29 1.34 1.43 1.56 1.69 1.78 1.86 1.94 2.00 2.04 2.11 2.25 2.50
2.05 2.00 1.94 1.90 1.94 1.98 2.04 2.12 2.31 2.42 2.07 1.45 1.23 1.20 1.25 1.25 1.34 1.20 1.13 1.28 1.20 1.15 1.14 1.17 1.19 1.18 1.18 1.22 1.28 1.36 1.45 1.50 1.59 1.76 1.93 2.04 2.13 2.26
1.97 1.93 1.80 1.71 1.78 1.81 1.84 1.88 1.95 2.07 2.01 1.48 1.24 1.22 1.26 1.22 1.21 1.12 1.06 1.04 1.01 1.07 1.03 1.04 1.09 1.11 1.11 1.13 1.19 1.26 1.29 1.34 1.44 1.55 1.71 1.85 1.97 2.01
1.76 1.81 1.76 1.66 1.65 1.68 1.73 1.70 1.65 1.65 1.74 1.57 1.25 1.15 1.13 1.07 1.06 1.06 1.01 0.97 0.91 1.02 1.01 1.00 1.07 1.09 1.07 1.06 1.08 1.15 1.21 1.25 1.31 1.39 1.47 1.55 1.69 1.83
1.57 1.64 1.67 1.70 1.68 1.64 1.62 1.60 1.56 1.55 1.60 1.63 1.35 1.15 1.09 1.04 1.05 1.02 0.98 0.96 0.90 0.99 1.03 1.01 1.01 1.05 1.05 1.05 1.06 1.06 1.10 1.15 1.22 1.30 1.41 1.47 1.54 1.66
1.50 1.57 1.59 1.58 1.53 1.48 1.51 1.47 1.49 1.55 1.55 1.61 1.52 1.33 1.20 1.09 1.12 1.13 1.11 1.00 0.95 0.93 1.06 1.06 1.06 1.05 1.05 1.02 0.98 0.96 0.98 1.07 1.21 1.36 1.49 1.58 1.58 1.60
1.56 1.53 1.54 1.60 1.52 1.46 1.45 1.45 1.48 1.58 1.65 1.69 1.59 1.40 1.26 1.18 1.12 1.04 1.09 1.08 1.03 0.94 0.99 0.98 1.01 1.03 1.04 1.09 1.10 1.09 1.11 1.20 1.34 1.49 1.60 1.67 1.70 1.73
1.52 1.41 1.41 1.52 1.51 1.52 1.49 1.47 1.53 1.63 1.72 1.75 1.64 1.42 1.15 1.05 1.08 1.23 1.35 1.49 1.42 1.01 1.02 1.12 1.16 1.25 1.20 1.16 1.28 1.30 1.30 1.37 1.44 1.51 1.59 1.66 1.68 1.71
1.39 1.31 1.27 1.26 1.36 1.27 1.33 1.41 1.42 1.51 1.58 1.58 1.51 1.23 1.08 1.03 1.25 1.48 1.53 1.54 1.36 1.12 1.28 1.46 1.34 1.29 1.18 1.22 1.40 1.31 1.29 1.31 1.36 1.42 1.46 1.51 1.56 1.58
1.30 1.19 1.16 1.14 1.18 1.29 1.36 1.44 1.34 1.25 1.22 1.16 1.13 1.07 1.06 1.14 1.39 1.67 1.81 1.88 1.63 1.40 1.40 1.55 1.32 1.19 1.10 1.15 1.34 1.29 1.22 1.26 1.32 1.38 1.43 1.46 1.48 1.48
1.33 1.26 1.21 1.13 1.25 1.46 1.52 1.53 1.36 1.18 1.16 1.19 1.23 1.22 1.29 1.35 1.45 1.74 2.02 2.19 1.96 1.47 1.25 1.31 1.24 1.18 1.15 1.13 1.23 1.37 1.31 1.28 1.32 1.37 1.37 1.38 1.45 1.50
1.37 1.32 1.39 1.31 1.40 1.52 1.46 1.48 1.38 1.17 1.09 1.09 1.11 1.12 1.05 1.08 1.29 1.44 1.88 2.35 2.09 1.66 1.18 1.22 1.28 1.44 1.68 1.25 1.10 1.18 1.26 1.32 1.32 1.34 1.37 1.41 1.44 1.41
1.46 1.36 1.33 1.52 1.58 1.60 1.48 1.28 1.27 1.32 1.21 1.12 1.10 1.09 1.06 1.04 1.08 1.12 1.39 2.10 2.46 1.95 1.22 1.56 1.81 1.58 1.78 1.42 1.13 1.13 1.19 1.30 1.39 1.40 1.44 1.48 1.50 1.54
1.40 1.27 1.31 1.55 1.55 1.50 1.39 1.40 1.49 1.41 1.22 1.25 1.24 1.19 1.13 1.09 1.09 1.13 1.18 1.36 1.71 1.86 1.49 1.78 2.24 1.85 1.97 1.67 1.25 1.17 1.23 1.39 1.56 1.57 1.53 1.66 1.64 1.64
1.37 1.44 1.46 1.49 1.44 1.38 1.43 1.44 1.40 1.29 1.33 1.42 1.34 1.20 1.11 1.11 1.16 1.24 1.27 1.27 1.36 1.41 1.41 1.48 1.80 1.83 2.04 1.99 1.54 1.31 1.41 1.49 1.65 1.87 1.85 1.74 1.61 1.59
1.44 1.48 1.45 1.41 1.40 1.40 1.47 1.42 1.30 1.31 1.45 1.48 1.35 1.23 1.20 1.26 1.27 1.34 1.50 1.54 1.65 1.58 1.44 1.37 1.45 1.74 1.88 1.57 1.63 1.59 1.56 1.83 1.88 2.07 2.07 1.85 1.64 1.49
1.50 1.39 1.32 1.31 1.34 1.33 1.28 1.29 1.30 1.37 1.43 1.37 1.39 1.39 1.38 1.46 1.51 1.56 1.73 1.82 1.87 1.64 1.45 1.32 1.30 1.40 1.56 1.63 1.68 1.53 1.58 1.81 1.99 2.12 2.16 2.05 1.83 1.62
1.50 1.40 1.31 1.23 1.23 1.25 1.23 1.23 1.25 1.30 1.37 1.48 1.52 1.53 1.58 1.66 1.73 1.76 1.89 2.01 1.91 1.60 1.38 1.24 1.26 1.42 1.50 1.49 1.51 1.58 1.66 1.85 1.98 2.00 1.91 1.97 1.93 1.66
1.29 1.25 1.22 1.19 1.17 1.17 1.21 1.25 1.27 1.26 1.40 1.61 1.71 1.75 1.82 1.86 1.92 1.95 1.96 1.95 1.79 1.55 1.37 1.26 1.36 1.77 1.87 1.42 1.15 1.34 1.77 1.92 1.87 1.87 1.74 1.67 1.75 1.58
1.18 1.15 1.13 1.12 1.16 1.21 1.26 1.35 1.39 1.40 1.50 1.66 1.76 1.81 1.91 2.04 2.07 1.98 1.87 1.81 1.71 1.51 1.33 1.20 1.26 1.70 2.22 1.95 1.58 1.37 1.49 1.80 1.95 1.94 1.66 1.49 1.52 1.51
1.16 1.13 1.11 1.14 1.20 1.26 1.31 1.39 1.51 1.62 1.69 1.84 1.89 1.89 1.95 2.13 2.11 1.88 1.73 1.65 1.59 1.45 1.31 1.10 1.05 1.31 1.70 1.98 1.85 1.48 1.51 1.65 1.80 2.05 1.97 1.90 1.72 1.52
1.22 1.21 1.19 1.19 1.25 1.31 1.35 1.47 1.60 1.67 1.75 1.84 1.89 1.92 1.97 2.07 2.02 1.76 1.57 1.53 1.45 1.36 1.27 1.12 1.06 1.22 1.57 1.97 1.77 1.41 1.39 1.44 1.45 1.47 1.68 2.03 2.46 2.44
1.28 1.32 1.32 1.32 1.34 1.39 1.44 1.50 1.62 1.69 1.76 1.89 1.92 1.86 1.84 1.80 1.62 1.55 1.48 1.46 1.47 1.40 1.35 1.32 1.25 1.29 1.42 1.54 1.63 1.48 1.33 1.27 1.25 1.38 1.61 1.57 1.59 1.74

GEFSNE_prec_meanprecacc_318.txt.gz
Total_Precipitation_Accumulation
2.21 2.16 2.15 2.07 2.04 2.07 2.20 2.42 2.66 2.45 1.88 1.44 1.33 1.25 1.22 1.23 1.32 1.23 1.11 1.26 1.25 1.24 1.31 1.35 1.32 1.34 1.38 1.49 1.67 1.83 1.93 1.98 2.01 2.04 2.07 2.14 2.29 2.56
2.06 2.01 1.95 1.91 1.95 2.00 2.08 2.17 2.35 2.46 2.12 1.49 1.26 1.23 1.28 1.29 1.37 1.23 1.15 1.31 1.23 1.19 1.18 1.21 1.23 1.23 1.22 1.26 1.34 1.44 1.55 1.61 1.68 1.82 1.97 2.08 2.16 2.29
1.99 1.94 1.81 1.72 1.79 1.83 1.87 1.93 1.99 2.11 2.06 1.52 1.27 1.24 1.29 1.26 1.25 1.16 1.08 1.06 1.02 1.10 1.06 1.07 1.12 1.14 1.14 1.16 1.23 1.31 1.35 1.41 1.52 1.62 1.76 1.89 2.01 2.04
1.77 1.82 1.77 1.67 1.66 1.69 1.75 1.73 1.69 1.69 1.78 1.61 1.28 1.19 1.16 1.10 1.09 1.09 1.04 1.00 0.93 1.05 1.04 1.02 1.09 1.12 1.09 1.09 1.11 1.19 1.25 1.29 1.36 1.46 1.54 1.60 1.72 1.86
1.59 1.65 1.69 1.71 1.69 1.65 1.64 1.61 1.58 1.58 1.64 1.68 1.40 1.18 1.13 1.08 1.08 1.05 1.00 0.98 0.92 1.01 1.06 1.04 1.04 1.07 1.07 1.07 1.08 1.09 1.13 1.18 1.25 1.34 1.47 1.54 1.60 1.70
1.52 1.58 1.60 1.60 1.54 1.49 1.52 1.48 1.50 1.57 1.59 1.65 1.57 1.37 1.24 1.13 1.16 1.17 1.13 1.02 0.97 0.95 1.08 1.09 1.10 1.09 1.07 1.04 1.00 0.99 1.00 1.10 1.25 1.40 1.53 1.64 1.65 1.66
1.58 1.54 1.55 1.61 1.54 1.48 1.47 1.47 1.50 1.60 1.67 1.72 1.62 1.43 1.29 1.22 1.15 1.06 1.11 1.09 1.05 0.96 1.01 1.00 1.04 1.07 1.07 1.11 1.12 1.11 1.13 1.22 1.37 1.53 1.64 1.71 1.75 1.79
1.54 1.43 1.43 1.53 1.53 1.54 1.51 1.49 1.55 1.66 1.75 1.78 1.67 1.44 1.17 1.07 1.10 1.24 1.37 1.52 1.45 1.03 1.04 1.15 1.19 1.29 1.23 1.19 1.31 1.33 1.32 1.39 1.46 1.53 1.62 1.69 1.73 1.76
1.41 1.33 1.29 1.28 1.38 1.29 1.35 1.42 1.44 1.53 1.60 1.60 1.55 1.26 1.10 1.04 1.27 1.50 1.55 1.57 1.39 1.15 1.31 1.49 1.37 1.32 1.21 1.25 1.44 1.35 1.31 1.34 1.38 1.44 1.48 1.54 1.60 1.63
1.31 1.21 1.17 1.16 1.20 1.30 1.38 1.45 1.35 1.26 1.23 1.17 1.15 1.09 1.08 1.16 1.41 1.70 1.85 1.91 1.67 1.43 1.43 1.59 1.36 1.23 1.13 1.18 1.37 1.31 1.24 1.28 1.34 1.41 1.45 1.49 1.52 1.53
1.35 1.27 1.22 1.14 1.27 1.48 1.55 1.56 1.38 1.20 1.17 1.21 1.25 1.25 1.31 1.38 1.48 1.78 2.06 2.24 2.01 1.51 1.28 1.34 1.27 1.21 1.18 1.16 1.26 1.39 1.32 1.30 1.35 1.39 1.40 1.42 1.48 1.54
1.40 1.34 1.41 1.33 1.42 1.54 1.50 1.51 1.41 1.19 1.11 1.11 1.13 1.15 1.08 1.11 1.33 1.48 1.92 2.41 2.13 1.70 1.21 1.25 1.31 1.48 1.72 1.28 1.12 1.20 1.28 1.34 1.34 1.36 1.39 1.43 1.48 1.46
1.49 1.38 1.35 1.54 1.61 1.63 1.52 1.31 1.30 1.35 1.24 1.15 1.12 1.11 1.09 1.08 1.11 1.15 1.42 2.14 2.51 1.99 1.26 1.60 1.84 1.61 1.82 1.46 1.16 1.15 1.21 1.31 1.40 1.43 1.47 1.51 1.53 1.58
1.43 1.29 1.32 1.57 1.58 1.53 1.42 1.43 1.52 1.44 1.26 1.29 1.29 1.23 1.17 1.13 1.13 1.16 1.21 1.40 1.75 1.91 1.53 1.82 2.28 1.89 2.01 1.71 1.29 1.20 1.25 1.40 1.58 1.59 1.55 1.69 1.67 1.68
1.39 1.46 1.49 1.52 1.46 1.41 1.46 1.48 1.43 1.33 1.38 1.47 1.39 1.24 1.14 1.14 1.19 1.27 1.30 1.30 1.39 1.45 1.44 1.52 1.83 1.86 2.08 2.03 1.57 1.34 1.44 1.52 1.67 1.88 1.87 1.77 1.64 1.64
1.47 1.51 1.48 1.44 1.43 1.43 1.50 1.46 1.33 1.34 1.49 1.53 1.39 1.26 1.23 1.28 1.30 1.37 1.54 1.58 1.69 1.62 1.47 1.40 1.48 1.78 1.91 1.61 1.67 1.62 1.59 1.86 1.90 2.09 2.09 1.87 1.67 1.54
1.55 1.44 1.36 1.36 1.39 1.38 1.33 1.33 1.34 1.41 1.49 1.43 1.45 1.44 1.42 1.50 1.55 1.61 1.77 1.87 1.91 1.68 1.49 1.36 1.33 1.43 1.59 1.66 1.71 1.57 1.61 1.83 2.01 2.14 2.18 2.08 1.86 1.66
1.55 1.45 1.36 1.28 1.28 1.30 1.29 1.28 1.30 1.35 1.43 1.54 1.59 1.60 1.64 1.71 1.78 1.80 1.93 2.05 1.95 1.64 1.42 1.27 1.29 1.45 1.54 1.52 1.54 1.61 1.69 1.87 2.00 2.02 1.93 1.99 1.95 1.69
1.34 1.30 1.27 1.23 1.21 1.22 1.26 1.30 1.32 1.31 1.45 1.67 1.78 1.82 1.87 1.92 1.97 2.01 2.02 2.00 1.83 1.59 1.41 1.29 1.40 1.81 1.92 1.46 1.18 1.36 1.80 1.94 1.89 1.91 1.77 1.70 1.78 1.60
1.23 1.20 1.18 1.17 1.20 1.26 1.32 1.40 1.45 1.46 1.57 1.73 1.83 1.87 1.97 2.10 2.15 2.05 1.93 1.87 1.76 1.56 1.37 1.24 1.30 1.73 2.25 1.98 1.61 1.40 1.52 1.83 1.98 1.98 1.70 1.52 1.55 1.54
1.21 1.17 1.15 1.18 1.25 1.31 1.37 1.46 1.57 1.69 1.76 1.92 1.98 1.96 2.02 2.21 2.19 1.96 1.80 1.71 1.65 1.50 1.35 1.13 1.07 1.33 1.73 2.01 1.89 1.52 1.54 1.68 1.83 2.09 2.00 1.93 1.76 1.55
1.25 1.24 1.23 1.24 1.31 1.37 1.42 1.54 1.68 1.74 1.82 1.93 1.98 2.00 2.04 2.14 2.10 1.84 1.64 1.61 1.52 1.41 1.31 1.16 1.09 1.25 1.60 2.01 1.81 1.45 1.42 1.47 1.49 1.51 1.72 2.07 2.50 2.47
1.32 1.35 1.36 1.37 1.40 1.46 1.52 1.57 1.70 1.77 1.85 1.98 2.00 1.95 1.93 1.88 1.71 1.63 1.56 1.54 1.55 1.47 1.41 1.38 1.31 1.35 1.47 1.60 1.67 1.52 1.36 1.31 1.29 1.42 1.66 1.62 1.64 1.78

GEFSNE_prec_meanprecacc_324.txt.gz
Total_Precipitation_Accumulation
2.23 2.17 2.16 2.08 2.05 2.08 2.22 2.45 2.71 2.49 1.92 1.48 1.36 1.29 1.25 1.26 1.36 1.26 1.13 1.29 1.28 1.27 1.34 1.38 1.37 1.39 1.44 1.56 1.75 1.91 2.00 2.06 2.12 2.16 2.17 2.20 2.34 2.60
2.08 2.02 1.96 1.91 1.96 2.02 2.10 2.19 2.38 2.50 2.15 1.53 1.30 1.25 1.30 1.31 1.40 1.25 1.18 1.33 1.25 1.21 1.21 1.24 1.27 1.27 1.26 1.31 1.39 1.50 1.62 1.69 1.76 1.92 2.09 2.17 2.23 2.34
2.00 1.95 1.82 1.73 1.80 1.85 1.89 1.95 2.01 2.14 2.09 1.54 1.30 1.27 1.31 1.27 1.27 1.18 1.10 1.08 1.04 1.12 1.08 1.09 1.15 1.17 1.18 1.20 1.27 1.35 1.40 1.47 1.60 1.72 1.86 2.00 2.09 2.10
1.79 1.84 1.78 1.68 1.67 1.71 1.78 1.75 1.71 1.71 1.81 1.63 1.31 1.21 1.18 1.11 1.11 1.11 1.06 1.02 0.95 1.07 1.06 1.05 1.11 1.14 1.12 1.12 1.14 1.21 1.28 1.33 1.41 1.54 1.64 1.70 1.80 1.92
1.61 1.67 1.71 1.73 1.71 1.67 1.67 1.64 1.60 1.59 1.66 1.70 1.42 1.22 1.16 1.10 1.10 1.07 1.03 1.01 0.95 1.04 1.09 1.06 1.06 1.10 1.10 1.10 1.11 1.12 1.15 1.21 1.29 1.39 1.53 1.63 1.69 1.76
1.53 1.60 1.62 1.61 1.56 1.51 1.54 1.50 1.52 1.59 1.60 1.67 1.59 1.40 1.27 1.16 1.19 1.20 1.17 1.05 0.99 0.98 1.10 1.11 1.12 1.10 1.09 1.06 1.02 1.00 1.02 1.12 1.28 1.44 1.58 1.70 1.72 1.74
1.59 1.56 1.57 1.63 1.56 1.49 1.49 1.48 1.52 1.62 1.69 1.74 1.65 1.46 1.33 1.25 1.18 1.10 1.15 1.13 1.08 0.99 1.03 1.02 1.06 1.09 1.09 1.13 1.14 1.12 1.15 1.24 1.39 1.56 1.68 1.76 1.80 1.84
1.55 1.44 1.45 1.56 1.55 1.56 1.53 1.51 1.57 1.69 1.78 1.81 1.69 1.47 1.20 1.10 1.12 1.27 1.41 1.56 1.49 1.08 1.08 1.17 1.20 1.30 1.25 1.21 1.33 1.34 1.33 1.40 1.48 1.56 1.65 1.73 1.77 1.80
1.43 1.34 1.30 1.30 1.40 1.31 1.37 1.45 1.46 1.55 1.63 1.63 1.57 1.28 1.12 1.06 1.29 1.53 1.58 1.61 1.43 1.18 1.35 1.52 1.39 1.34 1.23 1.26 1.45 1.36 1.32 1.35 1.39 1.46 1.51 1.57 1.63 1.67
1.33 1.22 1.19 1.18 1.22 1.32 1.40 1.48 1.37 1.28 1.25 1.18 1.16 1.10 1.09 1.17 1.43 1.73 1.88 1.96 1.70 1.46 1.46 1.62 1.38 1.25 1.15 1.19 1.38 1.33 1.26 1.30 1.36 1.43 1.48 1.52 1.55 1.56
1.36 1.28 1.24 1.16 1.29 1.50 1.57 1.58 1.40 1.21 1.18 1.22 1.26 1.26 1.33 1.40 1.51 1.82 2.10 2.28 2.05 1.54 1.32 1.38 1.29 1.23 1.20 1.18 1.28 1.42 1.34 1.31 1.37 1.42 1.43 1.45 1.52 1.58
1.42 1.36 1.43 1.34 1.44 1.57 1.52 1.54 1.44 1.21 1.12 1.12 1.14 1.16 1.09 1.13 1.35 1.51 1.96 2.45 2.18 1.74 1.24 1.28 1.33 1.50 1.75 1.31 1.15 1.23 1.30 1.35 1.36 1.38 1.42 1.47 1.52 1.50
1.52 1.41 1.37 1.57 1.64 1.66 1.55 1.34 1.33 1.38 1.27 1.18 1.15 1.14 1.11 1.10 1.13 1.17 1.46 2.19 2.55 2.02 1.28 1.62 1.87 1.63 1.84 1.48 1.20 1.18 1.23 1.33 1.42 1.44 1.49 1.54 1.56 1.63
1.46 1.32 1.35 1.61 1.62 1.57 1.45 1.46 1.56 1.48 1.30 1.33 1.32 1.26 1.19 1.15 1.15 1.18 1.23 1.43 1.77 1.93 1.55 1.84 2.30 1.90 2.03 1.74 1.32 1.24 1.28 1.42 1.60 1.61 1.57 1.72 1.70 1.72
1.44 1.49 1.52 1.55 1.50 1.45 1.50 1.52 1.46 1.35 1.41 1.51 1.41 1.25 1.15 1.15 1.20 1.29 1.32 1.33 1.42 1.47 1.46 1.54 1.86 1.88 2.10 2.05 1.60 1.37 1.47 1.55 1.69 1.90 1.89 1.79 1.67 1.67
1.54 1.57 1.53 1.48 1.46 1.47 1.55 1.51 1.38 1.38 1.52 1.56 1.42 1.28 1.25 1.30 1.32 1.39 1.56 1.60 1.72 1.65 1.50 1.43 1.51 1.80 1.93 1.62 1.69 1.64 1.61 1.89 1.92 2.11 2.11 1.89 1.70 1.57
1.61 1.51 1.44 1.42 1.44 1.42 1.37 1.37 1.38 1.46 1.53 1.46 1.48 1.46 1.45 1.53 1.58 1.62 1.79 1.90 1.95 1.71 1.52 1.39 1.37 1.45 1.61 1.67 1.73 1.59 1.62 1.85 2.04 2.17 2.21 2.10 1.88 1.68
1.62 1.52 1.43 1.35 1.34 1.34 1.33 1.32 1.34 1.39 1.47 1.58 1.62 1.63 1.67 1.74 1.81 1.83 1.96 2.08 1.98 1.66 1.45 1.31 1.33 1.49 1.56 1.54 1.56 1.63 1.71 1.89 2.02 2.04 1.95 2.02 1.98 1.71
1.42 1.38 1.35 1.30 1.26 1.26 1.30 1.34 1.36 1.35 1.49 1.71 1.82 1.86 1.91 1.95 2.01 2.05 2.05 2.04 1.87 1.62 1.44 1.32 1.44 1.85 1.96 1.50 1.20 1.38 1.81 1.96 1.91 1.93 1.79 1.72 1.79 1.61
1.30 1.28 1.26 1.24 1.27 1.31 1.36 1.45 1.50 1.51 1.62 1.78 1.87 1.91 2.01 2.15 2.19 2.08 1.97 1.90 1.80 1.59 1.40 1.27 1.34 1.78 2.29 2.01 1.64 1.42 1.54 1.85 2.01 2.00 1.72 1.54 1.57 1.56
1.26 1.24 1.22 1.26 1.33 1.38 1.42 1.50 1.62 1.74 1.82 1.98 2.03 2.01 2.06 2.26 2.24 2.01 1.84 1.76 1.69 1.55 1.39 1.16 1.11 1.36 1.76 2.04 1.92 1.55 1.57 1.72 1.87 2.13 2.04 1.98 1.80 1.59
1.31 1.30 1.29 1.31 1.39 1.45 1.50 1.60 1.73 1.80 1.89 2.00 2.05 2.05 2.09 2.19 2.15 1.88 1.70 1.66 1.57 1.46 1.35 1.19 1.13 1.28 1.64 2.05 1.85 1.48 1.45 1.50 1.53 1.56 1.76 2.12 2.55 2.52
1.38 1.41 1.42 1.43 1.47 1.53 1.60 1.66 1.77 1.83 1.91 2.05 2.08 2.02 1.99 1.94 1.76 1.68 1.61 1.59 1.60 1.52 1.46 1.42 1.35 1.39 1.52 1.64 1.72 1.55 1.40 1.34 1.32 1.46 1.70 1.67 1.69 1.83

GEFSNE_prec_meanprecacc_330.txt.gz
Total_Precipitation_Accumulation
2.26 2.20 2.18 2.09 2.07 2.09 2.23 2.46 2.73 2.52 1.94 1.49 1.38 1.31 1.28 1.30 1.40 1.29 1.17 1.32 1.30 1.29 1.36 1.42 1.41 1.44 1.49 1.61 1.82 1.98 2.07 2.13 2.18 2.22 2.24 2.29 2.44 2.70
2.11 2.05 1.98 1.93 1.98 2.03 2.10 2.20 2.39 2.52 2.18 1.54 1.31 1.27 1.33 1.35 1.44 1.29 1.21 1.37 1.28 1.23 1.22 1.26 1.29 1.31 1.31 1.35 1.44 1.56 1.69 1.75 1.83 1.98 2.15 2.26 2.34 2.45
2.04 1.98 1.84 1.74 1.82 1.86 1.90 1.96 2.02 2.15 2.10 1.56 1.31 1.29 1.33 1.31 1.32 1.23 1.14 1.12 1.07 1.15 1.10 1.11 1.16 1.19 1.20 1.24 1.31 1.39 1.46 1.53 1.65 1.77 1.91 2.05 2.17 2.21
1.81 1.86 1.80 1.69 1.68 1.72 1.79 1.76 1.72 1.72 1.82 1.65 1.32 1.23 1.20 1.13 1.15 1.17 1.11 1.06 0.98 1.10 1.09 1.07 1.13 1.16 1.13 1.14 1.17 1.25 1.32 1.38 1.47 1.58 1.67 1.73 1.85 2.00
1.63 1.69 1.72 1.74 1.72 1.68 1.68 1.65 1.61 1.60 1.66 1.71 1.43 1.23 1.18 1.12 1.12 1.12 1.08 1.04 0.97 1.06 1.11 1.09 1.09 1.12 1.12 1.11 1.13 1.15 1.19 1.25 1.34 1.44 1.58 1.68 1.73 1.82
1.55 1.61 1.64 1.62 1.56 1.52 1.55 1.51 1.53 1.60 1.61 1.68 1.60 1.42 1.30 1.20 1.22 1.24 1.22 1.09 1.03 1.00 1.12 1.12 1.13 1.12 1.10 1.08 1.03 1.03 1.05 1.15 1.32 1.49 1.63 1.74 1.78 1.81
1.60 1.57 1.58 1.64 1.57 1.50 1.50 1.50 1.53 1.64 1.71 1.76 1.66 1.48 1.35 1.30 1.24 1.13 1.19 1.17 1.11 1.02 1.05 1.03 1.07 1.10 1.10 1.14 1.16 1.15 1.17 1.27 1.42 1.59 1.72 1.80 1.85 1.91
1.57 1.45 1.46 1.57 1.56 1.57 1.55 1.53 1.60 1.72 1.81 1.84 1.72 1.49 1.22 1.14 1.18 1.31 1.44 1.59 1.53 1.10 1.09 1.18 1.21 1.31 1.26 1.22 1.34 1.36 1.35 1.42 1.50 1.58 1.68 1.77 1.81 1.85
1.44 1.35 1.31 1.31 1.41 1.32 1.38 1.46 1.48 1.57 1.65 1.66 1.60 1.30 1.14 1.09 1.33 1.57 1.61 1.63 1.45 1.20 1.37 1.54 1.40 1.35 1.24 1.28 1.47 1.39 1.35 1.37 1.42 1.48 1.53 1.60 1.67 1.71
1.35 1.24 1.21 1.19 1.23 1.34 1.42 1.50 1.39 1.30 1.27 1.21 1.19 1.13 1.12 1.20 1.47 1.76 1.92 1.98 1.72 1.48 1.48 1.64 1.40 1.26 1.17 1.21 1.40 1.36 1.29 1.32 1.38 1.45 1.50 1.53 1.57 1.59
1.39 1.31 1.26 1.18 1.31 1.52 1.60 1.61 1.43 1.24 1.21 1.24 1.29 1.30 1.38 1.46 1.56 1.86 2.14 2.32 2.09 1.57 1.34 1.41 1.31 1.26 1.23 1.21 1.31 1.45 1.38 1.34 1.39 1.43 1.44 1.47 1.54 1.61
1.44 1.38 1.45 1.37 1.46 1.59 1.56 1.57 1.47 1.23 1.15 1.14 1.17 1.20 1.14 1.18 1.39 1.54 1.99 2.49 2.22 1.77 1.27 1.31 1.36 1.54 1.79 1.35 1.19 1.27 1.35 1.39 1.39 1.40 1.44 1.48 1.54 1.52
1.54 1.43 1.39 1.59 1.65 1.68 1.57 1.37 1.36 1.40 1.30 1.21 1.19 1.18 1.16 1.14 1.16 1.19 1.47 2.21 2.58 2.05 1.31 1.66 1.91 1.67 1.89 1.53 1.24 1.23 1.29 1.38 1.46 1.47 1.51 1.55 1.58 1.65
1.48 1.33 1.37 1.63 1.64 1.59 1.47 1.48 1.58 1.51 1.33 1.37 1.37 1.31 1.25 1.19 1.17 1.20 1.26 1.45 1.80 1.95 1.58 1.88 2.35 1.94 2.07 1.78 1.37 1.30 1.34 1.48 1.64 1.64 1.60 1.74 1.72 1.74
1.45 1.51 1.54 1.57 1.53 1.48 1.53 1.55 1.49 1.38 1.45 1.55 1.46 1.30 1.21 1.20 1.24 1.32 1.35 1.36 1.45 1.51 1.51 1.59 1.90 1.93 2.14 2.10 1.65 1.43 1.54 1.61 1.74 1.93 1.92 1.81 1.69 1.69
1.55 1.59 1.55 1.50 1.49 1.50 1.58 1.55 1.43 1.42 1.58 1.61 1.47 1.34 1.31 1.36 1.37 1.43 1.60 1.65 1.77 1.70 1.55 1.48 1.56 1.84 1.98 1.67 1.72 1.69 1.66 1.95 1.97 2.14 2.13 1.91 1.71 1.58
1.63 1.53 1.47 1.45 1.47 1.45 1.40 1.41 1.44 1.53 1.61 1.53 1.54 1.53 1.52 1.59 1.63 1.67 1.84 1.95 2.00 1.76 1.57 1.46 1.43 1.52 1.66 1.72 1.77 1.63 1.66 1.89 2.08 2.19 2.23 2.13 1.90 1.70
1.64 1.55 1.46 1.39 1.39 1.38 1.37 1.36 1.39 1.46 1.56 1.67 1.71 1.71 1.74 1.81 1.88 1.89 2.01 2.14 2.04 1.71 1.49 1.36 1.40 1.58 1.64 1.60 1.61 1.67 1.74 1.93 2.06 2.07 1.98 2.04 2.00 1.73
1.45 1.41 1.37 1.34 1.31 1.30 1.34 1.39 1.41 1.40 1.55 1.78 1.91 1.95 1.99 2.03 2.08 2.12 2.12 2.10 1.93 1.67 1.48 1.36 1.49 1.92 2.04 1.57 1.26 1.42 1.85 2.00 1.94 1.95 1.81 1.74 1.82 1.64
1.33 1.30 1.29 1.28 1.31 1.35 1.40 1.48 1.54 1.55 1.66 1.83 1.93 1.99 2.09 2.23 2.26 2.15 2.03 1.96 1.85 1.64 1.45 1.31 1.39 1.83 2.35 2.07 1.70 1.48 1.59 1.88 2.03 2.02 1.74 1.56 1.59 1.59
1.29 1.26 1.25 1.29 1.36 1.42 1.46 1.54 1.66 1.78 1.86 2.03 2.08 2.07 2.13 2.33 2.31 2.07 1.91 1.82 1.74 1.59 1.43 1.20 1.16 1.41 1.79 2.09 1.98 1.60 1.61 1.75 1.89 2.15 2.07 2.01 1.83 1.61
1.34 1.34 1.32 1.34 1.42 1.49 1.54 1.64 1.77 1.83 1.93 2.04 2.10 2.11 2.14 2.25 2.21 1.95 1.76 1.72 1.61 1.49 1.38 1.23 1.17 1.33 1.68 2.10 1.89 1.51 1.49 1.54 1.56 1.58 1.79 2.15 2.59 2.55
1.41 1.45 1.45 1.46 1.50 1.57 1.64 1.70 1.81 1.87 1.94 2.09 2.12 2.07 2.04 2.00 1.82 1.74 1.67 1.64 1.65 1.57 1.50 1.47 1.40 1.44 1.56 1.67 1.75 1.59 1.43 1.37 1.35 1.49 1.73 1.70 1.71 1.85

GEFSNE_prec_meanprecacc_336.txt.gz
Total_Precipitation_Accumulation
2.29 2.22 2.21 2.12 2.10 2.12 2.26 2.50 2.76 2.55 1.95 1.51 1.38 1.31 1.29 1.30 1.40 1.30 1.18 1.34 1.33 1.33 1.40 1.45 1.44 1.47 1.53 1.66 1.87 2.04 2.14 2.20 2.25 2.27 2.28 2.33 2.49 2.78
2.15 2.08 2.01 1.96 2.01 2.06 2.14 2.23 2.42 2.54 2.20 1.55 1.33 1.28 1.34 1.36 1.45 1.29 1.22 1.39 1.30 1.25 1.26 1.30 1.32 1.33 1.34 1.39 1.48 1.60 1.74 1.83 1.92 2.06 2.20 2.30 2.38 2.51
2.08 2.03 1.88 1.77 1.85 1.89 1.93 1.99 2.04 2.17 2.12 1.57 1.32 1.29 1.34 1.31 1.33 1.24 1.15 1.13 1.09 1.17 1.12 1.13 1.18 1.21 1.22 1.27 1.34 1.43 1.50 1.59 1.74 1.85 1.98 2.11 2.23 2.27
1.84 1.90 1.85 1.74 1.73 1.76 1.83 1.80 1.74 1.73 1.83 1.66 1.34 1.24 1.21 1.13 1.16 1.18 1.12 1.08 1.01 1.14 1.12 1.09 1.15 1.17 1.15 1.16 1.20 1.28 1.36 1.42 1.52 1.65 1.74 1.79 1.91 2.06
1.63 1.71 1.75 1.78 1.76 1.73 1.72 1.69 1.64 1.62 1.68 1.72 1.44 1.24 1.19 1.12 1.13 1.13 1.09 1.06 0.99 1.09 1.14 1.12 1.11 1.13 1.13 1.13 1.14 1.17 1.21 1.28 1.37 1.48 1.63 1.73 1.79 1.88
1.55 1.62 1.64 1.64 1.59 1.55 1.59 1.55 1.57 1.63 1.63 1.70 1.61 1.42 1.30 1.20 1.22 1.25 1.24 1.11 1.04 1.02 1.15 1.16 1.16 1.14 1.12 1.09 1.04 1.04 1.07 1.18 1.34 1.52 1.66 1.77 1.81 1.85
1.61 1.57 1.59 1.65 1.58 1.53 1.53 1.54 1.57 1.68 1.74 1.79 1.68 1.49 1.36 1.30 1.24 1.15 1.21 1.19 1.14 1.04 1.08 1.07 1.10 1.12 1.11 1.15 1.16 1.15 1.18 1.28 1.44 1.61 1.75 1.83 1.88 1.93
1.57 1.46 1.46 1.57 1.57 1.58 1.57 1.55 1.63 1.77 1.86 1.88 1.74 1.51 1.23 1.14 1.19 1.33 1.46 1.62 1.57 1.13 1.12 1.22 1.24 1.33 1.27 1.22 1.35 1.37 1.36 1.43 1.51 1.59 1.70 1.79 1.84 1.88
1.45 1.36 1.32 1.31 1.41 1.33 1.40 1.48 1.49 1.60 1.69 1.70 1.63 1.32 1.15 1.10 1.35 1.59 1.63 1.65 1.48 1.23 1.40 1.57 1.43 1.37 1.25 1.28 1.48 1.39 1.35 1.37 1.42 1.48 1.54 1.61 1.68 1.73
1.35 1.25 1.22 1.20 1.24 1.35 1.44 1.52 1.41 1.32 1.29 1.23 1.21 1.15 1.13 1.22 1.49 1.79 1.95 2.01 1.75 1.51 1.51 1.68 1.42 1.28 1.18 1.21 1.40 1.36 1.29 1.32 1.38 1.45 1.51 1.55 1.59 1.60
1.39 1.31 1.26 1.19 1.32 1.54 1.63 1.64 1.45 1.26 1.23 1.26 1.31 1.32 1.40 1.48 1.60 1.92 2.20 2.38 2.14 1.61 1.37 1.44 1.34 1.28 1.24 1.22 1.32 1.46 1.38 1.34 1.39 1.44 1.45 1.48 1.55 1.62
1.45 1.39 1.46 1.38 1.48 1.62 1.59 1.61 1.51 1.27 1.18 1.17 1.20 1.23 1.17 1.20 1.43 1.60 2.05 2.55 2.28 1.82 1.30 1.34 1.39 1.56 1.82 1.37 1.20 1.28 1.35 1.40 1.39 1.41 1.45 1.50 1.55 1.54
1.55 1.44 1.40 1.60 1.67 1.70 1.60 1.41 1.40 1.45 1.34 1.26 1.23 1.22 1.20 1.18 1.19 1.22 1.51 2.25 2.63 2.09 1.33 1.69 1.94 1.69 1.91 1.55 1.25 1.24 1.30 1.39 1.47 1.48 1.53 1.57 1.60 1.67
1.49 1.34 1.38 1.64 1.65 1.61 1.49 1.50 1.61 1.55 1.37 1.41 1.41 1.36 1.29 1.24 1.22 1.24 1.29 1.48 1.83 1.98 1.60 1.90 2.38 1.96 2.09 1.80 1.38 1.31 1.34 1.49 1.65 1.66 1.61 1.76 1.74 1.77
1.46 1.51 1.55 1.58 1.54 1.49 1.55 1.56 1.51 1.41 1.48 1.59 1.49 1.34 1.25 1.25 1.28 1.36 1.39 1.40 1.49 1.54 1.53 1.61 1.93 1.95 2.17 2.13 1.67 1.45 1.56 1.63 1.76 1.95 1.94 1.84 1.72 1.72
1.56 1.60 1.56 1.51 1.50 1.51 1.59 1.56 1.44 1.45 1.61 1.64 1.50 1.38 1.35 1.41 1.43 1.48 1.65 1.69 1.81 1.74 1.59 1.52 1.60 1.89 2.02 1.70 1.76 1.72 1.70 1.99 2.01 2.17 2.16 1.94 1.74 1.61
1.65 1.55 1.48 1.46 1.48 1.46 1.41 1.42 1.45 1.55 1.63 1.56 1.57 1.57 1.57 1.65 1.70 1.74 1.90 2.00 2.04 1.81 1.63 1.51 1.49 1.58 1.72 1.78 1.83 1.69 1.71 1.94 2.12 2.23 2.27 2.17 1.94 1.73
1.66 1.57 1.48 1.40 1.39 1.39 1.38 1.37 1.40 1.47 1.58 1.70 1.75 1.75 1.79 1.87 1.95 1.97 2.10 2.22 2.10 1.76 1.54 1.42 1.47 1.65 1.72 1.68 1.68 1.72 1.79 1.97 2.10 2.10 2.01 2.07 2.04 1.77
1.48 1.43 1.39 1.35 1.32 1.31 1.35 1.40 1.42 1.42 1.57 1.81 1.94 1.99 2.04 2.09 2.15 2.20 2.21 2.20 2.02 1.74 1.54 1.43 1.56 2.00 2.12 1.64 1.33 1.48 1.89 2.03 1.98 1.98 1.84 1.77 1.85 1.67
1.35 1.32 1.30 1.29 1.32 1.36 1.41 1.50 1.55 1.56 1.68 1.85 1.96 2.03 2.14 2.28 2.32 2.23 2.12 2.05 1.95 1.73 1.54 1.39 1.46 1.90 2.41 2.13 1.76 1.54 1.63 1.92 2.07 2.06 1.77 1.59 1.62 1.62
1.30 1.28 1.26 1.30 1.38 1.44 1.48 1.56 1.68 1.80 1.88 2.05 2.11 2.11 2.18 2.39 2.38 2.15 1.99 1.91 1.84 1.69 1.52 1.28 1.23 1.47 1.85 2.15 2.06 1.68 1.68 1.80 1.92 2.18 2.10 2.04 1.86 1.65
1.35 1.35 1.33 1.35 1.44 1.51 1.56 1.66 1.80 1.86 1.95 2.08 2.13 2.14 2.19 2.31 2.27 2.02 1.84 1.82 1.71 1.58 1.46 1.30 1.24 1.39 1.74 2.17 1.96 1.59 1.57 1.60 1.60 1.61 1.81 2.18 2.62 2.59
1.43 1.46 1.47 1.47 1.52 1.59 1.67 1.73 1.84 1.90 1.97 2.12 2.16 2.10 2.09 2.06 1.88 1.80 1.75 1.73 1.74 1.65 1.58 1.55 1.48 1.50 1.62 1.73 1.81 1.65 1.49 1.43 1.40 1.53 1.77 1.72 1.73 1.87

GEFSNE_prec_meanprecacc_342.txt.gz
Total_Precipitation_Accumulation
2.31 2.24 2.22 2.13 2.10 2.13 2.28 2.53 2.80 2.58 1.98 1.53 1.41 1.35 1.32 1.32 1.42 1.31 1.19 1.35 1.34 1.34 1.43 1.51 1.50 1.53 1.58 1.70 1.91 2.08 2.19 2.25 2.29 2.32 2.35 2.38 2.54 2.82
2.16 2.10 2.02 1.97 2.01 2.06 2.15 2.25 2.45 2.58 2.23 1.58 1.36 1.32 1.39 1.39 1.47 1.31 1.23 1.40 1.31 1.26 1.27 1.32 1.38 1.41 1.41 1.45 1.52 1.63 1.78 1.88 1.96 2.11 2.28 2.38 2.44 2.56
2.10 2.04 1.89 1.79 1.86 1.90 1.94 2.00 2.06 2.19 2.15 1.60 1.35 1.33 1.38 1.35 1.35 1.25 1.16 1.14 1.10 1.18 1.13 1.14 1.20 1.26 1.29 1.33 1.40 1.48 1.54 1.63 1.78 1.92 2.07 2.21 2.32 2.33
1.86 1.91 1.86 1.75 1.74 1.77 1.84 1.80 1.75 1.75 1.86 1.69 1.36 1.28 1.24 1.17 1.18 1.20 1.13 1.08 1.01 1.14 1.12 1.10 1.16 1.19 1.19 1.21 1.24 1.32 1.39 1.46 1.57 1.71 1.81 1.88 2.01 2.15
1.64 1.72 1.76 1.79 1.77 1.73 1.73 1.71 1.66 1.64 1.70 1.75 1.47 1.27 1.23 1.15 1.15 1.14 1.10 1.07 1.00 1.09 1.15 1.13 1.12 1.15 1.15 1.16 1.19 1.21 1.24 1.31 1.41 1.54 1.70 1.80 1.88 1.98
1.56 1.62 1.65 1.65 1.60 1.56 1.60 1.56 1.58 1.65 1.66 1.73 1.64 1.46 1.34 1.23 1.25 1.27 1.24 1.11 1.05 1.02 1.15 1.16 1.17 1.15 1.13 1.11 1.08 1.08 1.10 1.20 1.37 1.56 1.73 1.85 1.89 1.93
1.61 1.57 1.59 1.65 1.58 1.53 1.54 1.55 1.59 1.69 1.76 1.81 1.71 1.53 1.40 1.34 1.27 1.16 1.21 1.20 1.14 1.04 1.08 1.07 1.11 1.14 1.13 1.16 1.18 1.18 1.22 1.31 1.46 1.64 1.79 1.90 1.95 2.01
1.58 1.46 1.47 1.58 1.57 1.59 1.57 1.56 1.64 1.79 1.88 1.90 1.77 1.54 1.27 1.18 1.22 1.35 1.46 1.62 1.57 1.13 1.13 1.22 1.25 1.35 1.29 1.24 1.36 1.38 1.38 1.46 1.53 1.61 1.72 1.82 1.88 1.93
1.46 1.37 1.33 1.32 1.42 1.33 1.40 1.48 1.50 1.61 1.70 1.72 1.66 1.35 1.18 1.14 1.38 1.62 1.64 1.66 1.48 1.24 1.40 1.58 1.44 1.39 1.26 1.30 1.49 1.40 1.37 1.39 1.44 1.51 1.56 1.63 1.70 1.76
1.37 1.26 1.23 1.20 1.24 1.35 1.45 1.53 1.42 1.33 1.30 1.25 1.23 1.17 1.15 1.24 1.52 1.82 1.97 2.03 1.76 1.51 1.52 1.69 1.44 1.30 1.19 1.23 1.43 1.38 1.31 1.34 1.40 1.47 1.52 1.57 1.60 1.62
1.40 1.32 1.27 1.20 1.33 1.55 1.64 1.65 1.47 1.27 1.24 1.27 1.33 1.34 1.42 1.51 1.63 1.97 2.25 2.41 2.16 1.62 1.38 1.46 1.35 1.29 1.26 1.24 1.34 1.49 1.41 1.37 1.41 1.46 1.47 1.50 1.57 1.65
1.45 1.39 1.46 1.38 1.49 1.63 1.60 1.63 1.53 1.28 1.19 1.18 1.21 1.24 1.18 1.22 1.45 1.63 2.09 2.59 2.30 1.83 1.31 1.35 1.40 1.57 1.84 1.39 1.22 1.31 1.39 1.44 1.43 1.43 1.47 1.51 1.57 1.56
1.56 1.45 1.41 1.61 1.68 1.71 1.61 1.42 1.42 1.46 1.36 1.28 1.25 1.24 1.22 1.20 1.21 1.24 1.53 2.28 2.66 2.11 1.34 1.70 1.95 1.71 1.93 1.57 1.28 1.26 1.32 1.42 1.50 1.51 1.55 1.59 1.62 1.69
1.50 1.35 1.38 1.65 1.66 1.62 1.51 1.51 1.62 1.57 1.40 1.43 1.43 1.38 1.32 1.28 1.26 1.27 1.32 1.51 1.86 2.00 1.62 1.92 2.40 1.98 2.11 1.82 1.41 1.34 1.37 1.51 1.67 1.68 1.63 1.78 1.76 1.79
1.47 1.53 1.56 1.60 1.55 1.50 1.56 1.57 1.52 1.43 1.50 1.62 1.52 1.37 1.28 1.29 1.33 1.40 1.43 1.43 1.52 1.56 1.55 1.64 1.96 1.98 2.20 2.16 1.69 1.48 1.59 1.66 1.78 1.97 1.95 1.85 1.73 1.74
1.58 1.61 1.57 1.52 1.51 1.52 1.60 1.58 1.45 1.46 1.63 1.67 1.53 1.41 1.38 1.44 1.47 1.52 1.70 1.73 1.85 1.77 1.62 1.55 1.63 1.92 2.06 1.74 1.79 1.75 1.72 2.01 2.03 2.19 2.18 1.96 1.76 1.63
1.67 1.57 1.50 1.48 1.50 1.47 1.42 1.42 1.46 1.56 1.65 1.57 1.59 1.60 1.60 1.69 1.74 1.78 1.95 2.05 2.10 1.85 1.66 1.54 1.52 1.62 1.76 1.82 1.87 1.72 1.74 1.97 2.15 2.26 2.30 2.20 1.97 1.76
1.69 1.60 1.50 1.42 1.40 1.40 1.38 1.38 1.41 1.48 1.59 1.71 1.76 1.77 1.81 1.90 1.98 2.01 2.15 2.27 2.15 1.81 1.58 1.46 1.51 1.70 1.78 1.74 1.73 1.77 1.83 2.01 2.14 2.14 2.05 2.11 2.07 1.80
1.52 1.46 1.41 1.36 1.33 1.32 1.36 1.41 1.43 1.42 1.58 1.82 1.96 2.00 2.06 2.11 2.18 2.24 2.25 2.25 2.07 1.79 1.59 1.48 1.62 2.06 2.19 1.70 1.38 1.52 1.93 2.07 2.02 2.03 1.88 1.80 1.87 1.69
1.37 1.34 1.32 1.30 1.33 1.37 1.42 1.50 1.56 1.57 1.69 1.87 1.98 2.04 2.16 2.31 2.35 2.27 2.16 2.10 2.00 1.79 1.59 1.45 1.52 1.95 2.46 2.17 1.80 1.57 1.67 1.95 2.11 2.10 1.81 1.63 1.65 1.65
1.32 1.29 1.27 1.31 1.39 1.45 1.49 1.56 1.68 1.81 1.89 2.06 2.12 2.12 2.19 2.41 2.41 2.18 2.03 1.95 1.89 1.74 1.58 1.34 1.28 1.52 1.89 2.20 2.10 1.72 1.72 1.83 1.95 2.21 2.13 2.07 1.90 1.68
1.36 1.36 1.34 1.36 1.45 1.53 1.58 1.68 1.81 1.87 1.96 2.09 2.14 2.16 2.21 2.33 2.30 2.04 1.88 1.86 1.76 1.63 1.51 1.35 1.29 1.44 1.80 2.23 2.02 1.62 1.60 1.64 1.65 1.65 1.84 2.20 2.65 2.62
1.44 1.48 1.48 1.49 1.53 1.61 1.69 1.74 1.85 1.91 1.98 2.14 2.17 2.12 2.11 2.08 1.90 1.83 1.78 1.77 1.79 1.70 1.63 1.60 1.54 1.57 1.68 1.78 1.86 1.69 1.52 1.47 1.45 1.58 1.81 1.76 1.75 1.90